DLH435 KMCO-EDDP

Flight info

Callsign DLH435
Flight time 8h 59m
Altitude 34000
Route JEEMY4 PAINN DCT SHRKS/N0497F350 DCT BERTT DCT GURGE DCT RAYVO Q87 NOWAE DCT FAK DCT BOOYA Q34 RBV Q22 LLUND DCT BIZEX Q133 CAM DCT BEEHS DCT JIGZY DCT HULTN N611A SAXAN/M086F370 DCT 5250N DCT 5340N DCT 5330N DCT 5320N DCT MALOT/N0493F370 DCT GISTI/N0488F390 DCT ENJEX DCT ADHAV DCT AXNEF DCT ZIPWE DCT OZZIL DCT SAWPE L179 ICTAM M197 REDFA DCT TACHA DCT NORTA/N0461F230 DCT ADMOS T959 KOJEC
Aircraft B748/H-SDE3FGHIM1M2RWXY/LB1

Departure

Time 2026-04-25 13:07
Airport Orlando International Airport (KMCO)

Arrival

Time 2026-04-25 22:07
Airport Leipzig/Halle Airport (EDDP)
Time Latitude Longitude Altitude Speed Heading
2026-04-25 11:29 28.42877 -81.29973 104 ft 0 kts 257°
2026-04-25 12:38 28.42878 -81.29966 104 ft 1 kts 257°
2026-04-25 12:38 28.42880 -81.29955 105 ft 2 kts 257°
2026-04-25 12:38 28.42883 -81.29940 103 ft 2 kts 257°
2026-04-25 12:39 28.42886 -81.29923 103 ft 2 kts 257°
2026-04-25 12:39 28.42889 -81.29904 102 ft 2 kts 242°
2026-04-25 12:39 28.42903 -81.29895 105 ft 2 kts 168°
2026-04-25 12:39 28.42918 -81.29902 105 ft 2 kts 144°
2026-04-25 12:40 28.42932 -81.29914 104 ft 2 kts 129°
2026-04-25 12:40 28.42937 -81.29922 104 ft 0 kts 123°
2026-04-25 12:41 28.42947 -81.29902 101 ft 0 kts 123°
2026-04-25 12:41 28.42946 -81.29942 101 ft 0 kts 123°
2026-04-25 12:41 28.42949 -81.29946 103 ft 1 kts 123°
2026-04-25 12:41 28.42949 -81.29947 103 ft 0 kts 123°
2026-04-25 12:42 28.42952 -81.29952 103 ft 0 kts 123°
2026-04-25 12:46 28.42943 -81.29935 101 ft 3 kts 118°
2026-04-25 12:46 28.42934 -81.29915 104 ft 2 kts 118°
2026-04-25 12:46 28.42927 -81.29901 105 ft 3 kts 117°
2026-04-25 12:47 28.42918 -81.29874 105 ft 2 kts 105°
2026-04-25 12:47 28.42917 -81.29862 105 ft 0 kts 98°
2026-04-25 12:49 28.42916 -81.29857 105 ft 1 kts 98°
2026-04-25 12:50 28.42916 -81.29856 105 ft 0 kts 98°
2026-04-25 12:51 28.42915 -81.29847 104 ft 2 kts 98°
2026-04-25 12:51 28.42914 -81.29832 105 ft 2 kts 93°
2026-04-25 12:51 28.42913 -81.29817 105 ft 6 kts 92°
2026-04-25 12:51 28.42912 -81.29757 105 ft 5 kts 97°
2026-04-25 12:52 28.42893 -81.29718 106 ft 6 kts 143°
2026-04-25 12:52 28.42837 -81.29705 105 ft 11 kts 179°
2026-04-25 12:52 28.42752 -81.29704 106 ft 14 kts 179°
2026-04-25 12:52 28.42647 -81.29703 106 ft 17 kts 179°
2026-04-25 12:53 28.42535 -81.29700 106 ft 16 kts 178°
2026-04-25 12:53 28.42437 -81.29700 105 ft 13 kts 180°
2026-04-25 12:53 28.42362 -81.29699 106 ft 9 kts 180°
2026-04-25 12:53 28.42330 -81.29699 106 ft 4 kts 181°
2026-04-25 12:54 28.42306 -81.29704 106 ft 6 kts 200°
2026-04-25 12:54 28.42295 -81.29712 105 ft 1 kts 218°
2026-04-25 12:54 28.42288 -81.29726 107 ft 1 kts 248°
2026-04-25 12:54 28.42288 -81.29729 104 ft 0 kts 253°
2026-04-25 12:55 28.42287 -81.29730 104 ft 1 kts 253°
2026-04-25 12:55 28.42282 -81.29749 106 ft 8 kts 255°
2026-04-25 12:55 28.42278 -81.29815 104 ft 5 kts 268°
2026-04-25 12:55 28.42278 -81.29867 104 ft 10 kts 270°
2026-04-25 12:56 28.42278 -81.29990 104 ft 17 kts 268°
2026-04-25 12:56 28.42278 -81.30118 104 ft 16 kts 271°
2026-04-25 12:56 28.42277 -81.30241 104 ft 17 kts 268°
2026-04-25 12:56 28.42273 -81.30363 104 ft 12 kts 266°
2026-04-25 12:57 28.42268 -81.30455 105 ft 11 kts 265°
2026-04-25 12:57 28.42262 -81.30540 105 ft 11 kts 265°
2026-04-25 12:57 28.42258 -81.30608 106 ft 8 kts 266°
2026-04-25 12:57 28.42253 -81.30688 104 ft 12 kts 265°
2026-04-25 12:58 28.42245 -81.30806 105 ft 17 kts 265°
2026-04-25 12:58 28.42235 -81.30939 106 ft 17 kts 265°
2026-04-25 12:58 28.42237 -81.31036 106 ft 11 kts 276°
2026-04-25 12:58 28.42250 -81.31134 106 ft 14 kts 279°
2026-04-25 12:59 28.42264 -81.31238 106 ft 12 kts 277°
2026-04-25 12:59 28.42269 -81.31342 104 ft 18 kts 271°
2026-04-25 12:59 28.42266 -81.31480 106 ft 16 kts 268°
2026-04-25 12:59 28.42265 -81.31601 107 ft 14 kts 270°
2026-04-25 13:00 28.42266 -81.31706 108 ft 12 kts 270°
2026-04-25 13:00 28.42265 -81.31767 109 ft 12 kts 269°
2026-04-25 13:00 28.42263 -81.31932 107 ft 15 kts 270°
2026-04-25 13:00 28.42281 -81.31975 108 ft 6 kts 319°
2026-04-25 13:01 28.42330 -81.31987 108 ft 14 kts 356°
2026-04-25 13:01 28.42440 -81.31988 111 ft 19 kts 359°
2026-04-25 13:01 28.42578 -81.31989 109 ft 20 kts
2026-04-25 13:01 28.42712 -81.31990 110 ft 20 kts 359°
2026-04-25 13:02 28.42886 -81.31992 106 ft 27 kts 359°
2026-04-25 13:02 28.43071 -81.31994 106 ft 26 kts 359°
2026-04-25 13:02 28.43249 -81.31996 106 ft 25 kts 359°
2026-04-25 13:02 28.43419 -81.31994 106 ft 23 kts
2026-04-25 13:03 28.43564 -81.32001 106 ft 20 kts 356°
2026-04-25 13:03 28.43697 -81.32005 106 ft 18 kts 359°
2026-04-25 13:03 28.43820 -81.32007 107 ft 17 kts 359°
2026-04-25 13:03 28.43939 -81.32009 107 ft 16 kts 359°
2026-04-25 13:04 28.44052 -81.32009 104 ft 16 kts 360°
2026-04-25 13:04 28.44165 -81.32009 107 ft 18 kts
2026-04-25 13:04 28.44295 -81.32009 106 ft 19 kts 359°
2026-04-25 13:04 28.44431 -81.32011 107 ft 20 kts 359°
2026-04-25 13:05 28.44567 -81.32012 107 ft 20 kts 359°
2026-04-25 13:05 28.44686 -81.32029 105 ft 9 kts 322°
2026-04-25 13:05 28.44708 -81.32078 105 ft 11 kts 283°
2026-04-25 13:05 28.44716 -81.32162 105 ft 11 kts 274°
2026-04-25 13:06 28.44711 -81.32201 106 ft 3 kts 247°
2026-04-25 13:06 28.44673 -81.32228 105 ft 7 kts 191°
2026-04-25 13:06 28.44645 -81.32228 106 ft 3 kts 181°
2026-04-25 13:06 28.44627 -81.32229 107 ft 3 kts 181°
2026-04-25 13:07 28.44543 -81.32229 106 ft 37 kts 180°
2026-04-25 13:07 28.44002 -81.32222 107 ft 119 kts 179°
2026-04-25 13:07 28.42928 -81.32219 112 ft 186 kts 181°
2026-04-25 13:07 28.41528 -81.32213 873 ft 196 kts 183°
2026-04-25 13:08 28.40151 -81.32401 1835 ft 202 kts 192°
2026-04-25 13:08 28.38778 -81.32779 2354 ft 215 kts 198°
2026-04-25 13:08 28.37357 -81.33511 2641 ft 231 kts 208°
2026-04-25 13:08 28.35927 -81.34420 2971 ft 246 kts 210°
2026-04-25 13:09 28.34579 -81.35671 3309 ft 257 kts 229°
2026-04-25 13:09 28.33439 -81.37280 3721 ft 264 kts 232°
2026-04-25 13:09 28.32348 -81.38904 3929 ft 252 kts 232°
2026-04-25 13:09 28.31140 -81.40315 3898 ft 250 kts 210°
2026-04-25 13:10 28.30067 -81.40836 4035 ft 256 kts 201°
2026-04-25 13:10 28.28244 -81.42585 4527 ft 266 kts 241°
2026-04-25 13:10 28.27654 -81.44566 4942 ft 269 kts 259°
2026-04-25 13:10 28.27345 -81.46686 5335 ft 272 kts 262°
2026-04-25 13:11 28.27144 -81.48801 5737 ft 274 kts 267°
2026-04-25 13:11 28.27307 -81.50968 6063 ft 277 kts 289°
2026-04-25 13:11 28.28354 -81.52829 6002 ft 293 kts 315°
2026-04-25 13:11 28.30007 -81.54176 6403 ft 292 kts 338°
2026-04-25 13:12 28.31970 -81.54809 6996 ft 287 kts 350°
2026-04-25 13:12 28.33938 -81.55091 7404 ft 287 kts 352°
2026-04-25 13:12 28.35901 -81.55389 8016 ft 283 kts 352°
2026-04-25 13:12 28.37198 -81.55560 8604 ft 284 kts 353°
2026-04-25 13:13 28.39842 -81.55868 9739 ft 287 kts 353°
2026-04-25 13:13 28.41844 -81.56078 10449 ft 292 kts 353°
2026-04-25 13:13 28.43896 -81.55991 11000 ft 307 kts 13°
2026-04-25 13:13 28.45972 -81.55186 11482 ft 324 kts 19°
2026-04-25 13:14 28.48129 -81.54243 11967 ft 340 kts 17°
2026-04-25 13:14 28.50452 -81.53488 12421 ft 357 kts 10°
2026-04-25 13:14 28.52958 -81.52916 12875 ft 375 kts
2026-04-25 13:14 28.55574 -81.52270 13417 ft 392 kts 12°
2026-04-25 13:15 28.58257 -81.51488 14124 ft 403 kts 12°
2026-04-25 13:15 28.60990 -81.50697 14847 ft 410 kts 12°
2026-04-25 13:15 28.63803 -81.49941 15577 ft 418 kts 11°
2026-04-25 13:15 28.66664 -81.49180 15962 ft 426 kts 11°
2026-04-25 13:16 28.69527 -81.48389 16012 ft 426 kts 12°
2026-04-25 13:16 28.72407 -81.47582 16011 ft 425 kts 11°
2026-04-25 13:16 28.75288 -81.46789 16002 ft 425 kts 11°
2026-04-25 13:16 28.78166 -81.46005 16140 ft 426 kts 11°
2026-04-25 13:17 28.81061 -81.45210 16469 ft 428 kts 11°
2026-04-25 13:17 28.83973 -81.44404 17210 ft 432 kts 11°
2026-04-25 13:17 28.86916 -81.43591 18010 ft 438 kts 11°
2026-04-25 13:17 28.89895 -81.42771 18725 ft 443 kts 11°
2026-04-25 13:18 28.92909 -81.41943 19391 ft 447 kts 10°
2026-04-25 13:18 28.95966 -81.41496 20062 ft 448 kts 359°
2026-04-25 13:18 28.99073 -81.41702 20733 ft 450 kts 352°
2026-04-25 13:18 29.02182 -81.42051 21374 ft 453 kts 352°
2026-04-25 13:19 29.05350 -81.42412 22034 ft 457 kts 352°
2026-04-25 13:19 29.08533 -81.42764 22641 ft 461 kts 353°
2026-04-25 13:19 29.11722 -81.43104 23244 ft 464 kts 353°
2026-04-25 13:19 29.12798 -81.43208 23444 ft 466 kts 353°
2026-04-25 13:20 29.18229 -81.43689 24289 ft 472 kts 354°
2026-04-25 13:20 29.21529 -81.44003 24775 ft 475 kts 353°
2026-04-25 13:20 29.24828 -81.44331 25255 ft 478 kts 354°
2026-04-25 13:20 29.28138 -81.44648 25723 ft 481 kts 354°
2026-04-25 13:21 29.31490 -81.44959 26160 ft 484 kts 354°
2026-04-25 13:21 29.34864 -81.45277 26618 ft 487 kts 354°
2026-04-25 13:21 29.38247 -81.45604 27060 ft 490 kts 354°
2026-04-25 13:21 29.41667 -81.45933 27628 ft 490 kts 354°
2026-04-25 13:22 29.45052 -81.46253 28301 ft 488 kts 355°
2026-04-25 13:22 29.48429 -81.46574 29005 ft 486 kts 355°
2026-04-25 13:22 29.51808 -81.46898 29712 ft 485 kts 355°
2026-04-25 13:23 29.58466 -81.47536 30906 ft 482 kts 355°
2026-04-25 13:23 29.61853 -81.47848 31437 ft 481 kts 355°
2026-04-25 13:23 29.65169 -81.48139 31943 ft 480 kts 355°
2026-04-25 13:23 29.68474 -81.48434 32449 ft 480 kts 355°
2026-04-25 13:24 29.71805 -81.48741 32928 ft 479 kts 355°
2026-04-25 13:24 29.75120 -81.49047 33276 ft 481 kts 355°
2026-04-25 13:24 29.78469 -81.49352 33129 ft 482 kts 355°
2026-04-25 13:24 29.80681 -81.49549 32986 ft 481 kts 355°
2026-04-25 13:25 29.84038 -81.49850 32994 ft 485 kts 355°
2026-04-25 13:25 29.90715 -81.50912 32995 ft 486 kts 343°
2026-04-25 13:26 29.98240 -81.53600 33002 ft 492 kts 343°
2026-04-25 13:26 30.03700 -81.55551 32992 ft 494 kts 343°
2026-04-25 13:27 30.10263 -81.57895 32998 ft 494 kts 343°
2026-04-25 13:27 30.16825 -81.60251 32999 ft 493 kts 343°
2026-04-25 13:28 30.23391 -81.62604 32998 ft 493 kts 343°
2026-04-25 13:28 30.29909 -81.64949 33004 ft 492 kts 343°
2026-04-25 13:29 30.36494 -81.67317 32973 ft 495 kts 343°
2026-04-25 13:29 30.43092 -81.69696 32968 ft 495 kts 343°
2026-04-25 13:30 30.52913 -81.73241 32968 ft 495 kts 343°
2026-04-25 13:31 30.62887 -81.76216 32991 ft 495 kts 357°
2026-04-25 13:31 30.69761 -81.75724 32994 ft 495 kts
2026-04-25 13:32 30.76610 -81.74857 32981 ft 494 kts
2026-04-25 13:32 30.83476 -81.74007 32982 ft 495 kts
2026-04-25 13:33 30.90348 -81.73143 32981 ft 496 kts
2026-04-25 13:33 30.97117 -81.72297 32978 ft 495 kts
2026-04-25 13:34 31.03978 -81.71436 32974 ft 493 kts
2026-04-25 13:34 31.10824 -81.70576 32973 ft 493 kts
2026-04-25 13:35 31.17575 -81.69495 32991 ft 494 kts 14°
2026-04-25 13:35 31.24205 -81.67113 32980 ft 495 kts 17°
2026-04-25 13:36 31.30731 -81.64720 32973 ft 493 kts 16°
2026-04-25 13:36 31.37278 -81.62334 32979 ft 493 kts 16°
2026-04-25 13:37 31.43827 -81.59931 32980 ft 493 kts 16°
2026-04-25 13:37 31.50379 -81.57532 32983 ft 494 kts 16°
2026-04-25 13:38 31.56965 -81.55110 32975 ft 495 kts 16°
2026-04-25 13:38 31.63537 -81.52694 32973 ft 495 kts 16°
2026-04-25 13:39 31.70097 -81.50277 32962 ft 494 kts 16°
2026-04-25 13:39 31.76667 -81.47854 32961 ft 493 kts 16°
2026-04-25 13:40 31.83236 -81.45427 32961 ft 496 kts 17°
2026-04-25 13:40 31.89786 -81.43003 32963 ft 496 kts 17°
2026-04-25 13:41 31.96360 -81.40567 32960 ft 495 kts 17°
2026-04-25 13:41 32.02928 -81.38129 32958 ft 494 kts 17°
2026-04-25 13:42 32.09525 -81.35678 32970 ft 500 kts 17°
2026-04-25 13:42 32.16188 -81.33197 32972 ft 502 kts 17°
2026-04-25 13:43 32.22843 -81.30716 32970 ft 502 kts 17°
2026-04-25 13:43 32.29473 -81.28241 32971 ft 503 kts 17°
2026-04-25 13:44 32.36173 -81.25734 32948 ft 501 kts 17°
2026-04-25 13:44 32.39438 -81.24513 33117 ft 500 kts 17°
2026-04-25 13:44 32.42781 -81.23260 33358 ft 503 kts 17°
2026-04-25 13:44 32.46119 -81.21950 33612 ft 505 kts 22°
2026-04-25 13:45 32.49247 -81.20073 33892 ft 507 kts 32°
2026-04-25 13:45 32.52079 -81.17592 34128 ft 508 kts 38°
2026-04-25 13:45 32.54825 -81.14939 34330 ft 505 kts 38°
2026-04-25 13:45 32.57543 -81.12288 34541 ft 506 kts 38°
2026-04-25 13:46 32.60235 -81.09664 34742 ft 507 kts 37°
2026-04-25 13:46 32.62994 -81.06991 34925 ft 508 kts 37°
2026-04-25 13:46 32.65723 -81.04341 34927 ft 506 kts 37°
2026-04-25 13:47 32.71165 -80.99033 34926 ft 505 kts 37°
2026-04-25 13:47 32.76563 -80.93771 34923 ft 505 kts 37°
2026-04-25 13:48 32.81981 -80.88474 34944 ft 502 kts 38°
2026-04-25 13:48 32.87381 -80.83191 34948 ft 504 kts 38°
2026-04-25 13:49 32.92776 -80.77901 34952 ft 504 kts 38°
2026-04-25 13:49 32.98188 -80.72587 34951 ft 503 kts 38°
2026-04-25 13:50 33.03581 -80.67283 34948 ft 504 kts 38°
2026-04-25 13:50 33.08994 -80.61950 34925 ft 504 kts 38°
2026-04-25 13:51 33.14400 -80.56616 34926 ft 504 kts 38°
2026-04-25 13:51 33.19804 -80.51275 34932 ft 502 kts 38°
2026-04-25 13:52 33.25198 -80.45934 34933 ft 503 kts 38°
2026-04-25 13:52 33.30544 -80.40632 34929 ft 502 kts 38°
2026-04-25 13:53 33.35926 -80.35286 34935 ft 504 kts 39°
2026-04-25 13:53 33.41315 -80.29927 34938 ft 504 kts 39°
2026-04-25 13:54 33.46704 -80.24553 34939 ft 503 kts 39°
2026-04-25 13:54 33.52092 -80.19175 34945 ft 504 kts 39°
2026-04-25 13:55 33.57482 -80.13782 34943 ft 503 kts 39°
2026-04-25 13:55 33.62828 -80.08430 34941 ft 504 kts 38°
2026-04-25 13:55 33.65685 -80.06032 34956 ft 502 kts 27°
2026-04-25 13:56 33.68800 -80.04097 34937 ft 502 kts 26°
2026-04-25 13:56 33.75029 -80.00343 34943 ft 502 kts 26°
2026-04-25 13:57 33.81270 -79.96524 34928 ft 502 kts 26°
2026-04-25 13:57 33.87491 -79.92746 34924 ft 503 kts 26°
2026-04-25 13:58 33.93738 -79.88919 34922 ft 503 kts 26°
2026-04-25 13:58 33.99997 -79.85092 34930 ft 503 kts 26°
2026-04-25 13:59 34.06236 -79.81267 34939 ft 504 kts 26°
2026-04-25 13:59 34.12511 -79.77417 34933 ft 505 kts 26°
2026-04-25 14:00 34.17710 -79.74215 34925 ft 505 kts 26°
2026-04-25 14:00 34.25029 -79.69715 34932 ft 505 kts 26°
2026-04-25 14:01 34.31253 -79.65865 34922 ft 506 kts 26°
2026-04-25 14:01 34.37542 -79.61988 34924 ft 507 kts 26°
2026-04-25 14:02 34.43806 -79.58101 34917 ft 506 kts 26°
2026-04-25 14:02 34.50039 -79.54244 34917 ft 506 kts 26°
2026-04-25 14:03 34.56130 -79.50397 34933 ft 508 kts 28°
2026-04-25 14:03 34.62316 -79.46253 34923 ft 508 kts 27°
2026-04-25 14:04 34.68541 -79.42057 34941 ft 508 kts 28°
2026-04-25 14:04 34.74660 -79.37920 34943 ft 508 kts 27°
2026-04-25 14:05 34.80840 -79.33743 34951 ft 508 kts 27°
2026-04-25 14:05 34.87031 -79.29536 34947 ft 508 kts 28°
2026-04-25 14:06 34.93205 -79.25348 34935 ft 508 kts 28°
2026-04-25 14:06 34.99367 -79.21150 34909 ft 498 kts 28°
2026-04-25 14:07 35.05391 -79.17047 34885 ft 497 kts 28°
2026-04-25 14:07 35.11407 -79.12938 34891 ft 497 kts 28°
2026-04-25 14:08 35.17423 -79.08823 34908 ft 497 kts 28°
2026-04-25 14:08 35.23495 -79.04662 34911 ft 496 kts 27°
2026-04-25 14:09 35.29518 -79.00528 34908 ft 499 kts 28°
2026-04-25 14:09 35.35546 -78.96386 34900 ft 499 kts 27°
2026-04-25 14:10 35.41631 -78.92191 34897 ft 499 kts 27°
2026-04-25 14:10 35.47654 -78.88037 34897 ft 498 kts 27°
2026-04-25 14:11 35.53701 -78.83856 34896 ft 498 kts 28°
2026-04-25 14:11 35.59743 -78.79673 34894 ft 498 kts 28°
2026-04-25 14:12 35.64756 -78.76197 34892 ft 499 kts 28°
2026-04-25 14:12 35.70818 -78.71985 34886 ft 499 kts 28°
2026-04-25 14:13 35.76892 -78.67760 34897 ft 502 kts 27°
2026-04-25 14:13 35.82951 -78.63534 34893 ft 500 kts 27°
2026-04-25 14:14 35.89018 -78.59299 34904 ft 500 kts 27°
2026-04-25 14:14 35.95063 -78.55069 34909 ft 501 kts 27°
2026-04-25 14:15 36.01139 -78.50811 34914 ft 503 kts 27°
2026-04-25 14:15 36.07239 -78.46527 34920 ft 503 kts 27°
2026-04-25 14:16 36.13314 -78.42256 34919 ft 503 kts 27°
2026-04-25 14:16 36.19370 -78.37987 34915 ft 504 kts 27°
2026-04-25 14:17 36.25471 -78.33684 34893 ft 504 kts 26°
2026-04-25 14:17 36.31563 -78.29371 34890 ft 504 kts 26°
2026-04-25 14:18 36.37667 -78.25204 34897 ft 500 kts 19°
2026-04-25 14:18 36.44305 -78.22605 34893 ft 497 kts 12°
2026-04-25 14:19 36.50928 -78.20233 34887 ft 497 kts 13°
2026-04-25 14:19 36.57564 -78.17811 34936 ft 496 kts 12°
2026-04-25 14:20 36.64219 -78.15411 34952 ft 497 kts 13°
2026-04-25 14:20 36.70878 -78.12982 34953 ft 498 kts 12°
2026-04-25 14:21 36.77471 -78.10586 34952 ft 498 kts 12°
2026-04-25 14:21 36.84147 -78.08147 34930 ft 498 kts 12°
2026-04-25 14:22 36.90809 -78.05714 34889 ft 500 kts 12°
2026-04-25 14:22 36.97492 -78.03266 34896 ft 500 kts 12°
2026-04-25 14:23 37.04169 -78.00818 34896 ft 501 kts 12°
2026-04-25 14:23 37.10875 -77.98353 34912 ft 501 kts 12°
2026-04-25 14:24 37.17584 -77.95883 34892 ft 501 kts 12°
2026-04-25 14:24 37.24255 -77.93421 34889 ft 498 kts 12°
2026-04-25 14:25 37.30879 -77.90976 34885 ft 499 kts 12°
2026-04-25 14:25 37.37550 -77.88504 34892 ft 500 kts 11°
2026-04-25 14:26 37.44226 -77.86029 34897 ft 500 kts 11°
2026-04-25 14:26 37.50882 -77.83555 34904 ft 500 kts 11°
2026-04-25 14:27 37.57409 -77.80439 34922 ft 506 kts 17°
2026-04-25 14:27 37.63908 -77.77021 34926 ft 507 kts 17°
2026-04-25 14:28 37.70441 -77.73590 34936 ft 507 kts 17°
2026-04-25 14:28 37.76945 -77.70160 34936 ft 508 kts 17°
2026-04-25 14:29 37.83469 -77.66718 34943 ft 508 kts 17°
2026-04-25 14:29 37.89995 -77.63265 34940 ft 508 kts 17°
2026-04-25 14:30 37.96532 -77.59802 34942 ft 508 kts 17°
2026-04-25 14:30 38.06230 -77.54650 34936 ft 505 kts 17°
2026-04-25 14:31 38.12723 -77.51194 34940 ft 506 kts 17°
2026-04-25 14:31 38.19206 -77.47734 34939 ft 506 kts 17°
2026-04-25 14:32 38.25722 -77.44251 34934 ft 506 kts 17°
2026-04-25 14:32 38.32210 -77.40776 34925 ft 506 kts 17°
2026-04-25 14:33 38.38650 -77.37065 34967 ft 513 kts 26°
2026-04-25 14:33 38.44143 -77.31155 34995 ft 528 kts 43°
2026-04-25 14:34 38.49008 -77.24149 34971 ft 527 kts 44°
2026-04-25 14:34 38.53835 -77.17175 34969 ft 526 kts 43°
2026-04-25 14:35 38.58702 -77.10144 34964 ft 527 kts 44°
2026-04-25 14:35 38.63557 -77.03096 34978 ft 528 kts 43°
2026-04-25 14:36 38.68401 -76.96064 34944 ft 527 kts 43°
2026-04-25 14:36 38.73251 -76.88998 34969 ft 527 kts 44°
2026-04-25 14:37 38.78034 -76.82016 34974 ft 525 kts 43°
2026-04-25 14:37 38.82856 -76.74964 34989 ft 524 kts 43°
2026-04-25 14:38 38.87657 -76.67924 34978 ft 524 kts 43°
2026-04-25 14:38 38.92456 -76.60872 35002 ft 524 kts 44°
2026-04-25 14:39 38.97226 -76.53848 34999 ft 525 kts 44°
2026-04-25 14:39 39.02035 -76.46748 35012 ft 523 kts 43°
2026-04-25 14:40 39.06803 -76.39696 34992 ft 523 kts 43°
2026-04-25 14:40 39.11571 -76.32627 35010 ft 524 kts 44°
2026-04-25 14:41 39.16354 -76.25520 35017 ft 525 kts 44°
2026-04-25 14:41 39.21133 -76.18401 35033 ft 524 kts 43°
2026-04-25 14:42 39.24297 -76.13679 35019 ft 523 kts 43°
2026-04-25 14:42 39.30623 -76.04220 35000 ft 521 kts 43°
2026-04-25 14:43 39.35364 -75.97112 35001 ft 522 kts 43°
2026-04-25 14:43 39.40099 -75.89997 35026 ft 522 kts 43°
2026-04-25 14:44 39.44833 -75.82867 35029 ft 522 kts 43°
2026-04-25 14:44 39.49561 -75.75730 35035 ft 522 kts 43°
2026-04-25 14:45 39.54244 -75.68644 35043 ft 521 kts 43°
2026-04-25 14:45 39.58965 -75.61487 35052 ft 521 kts 43°
2026-04-25 14:46 39.63668 -75.54337 35053 ft 521 kts 43°
2026-04-25 14:46 39.68164 -75.46915 35047 ft 526 kts 48°
2026-04-25 14:47 39.71013 -75.41813 35056 ft 525 kts 48°
2026-04-25 14:47 39.76762 -75.31600 35070 ft 524 kts 48°
2026-04-25 14:48 39.81054 -75.23914 35068 ft 524 kts 48°
2026-04-25 14:48 39.85345 -75.16245 35069 ft 524 kts 48°
2026-04-25 14:49 39.89594 -75.08615 35067 ft 525 kts 48°
2026-04-25 14:49 39.93878 -75.00906 35071 ft 522 kts 47°
2026-04-25 14:50 39.98065 -74.93169 35074 ft 524 kts 50°
2026-04-25 14:50 40.02105 -74.85277 35071 ft 523 kts 50°
2026-04-25 14:51 40.06137 -74.77356 35070 ft 524 kts 50°
2026-04-25 14:51 40.10160 -74.69435 35073 ft 524 kts 50°
2026-04-25 14:52 40.14167 -74.61533 35074 ft 523 kts 50°
2026-04-25 14:52 40.16836 -74.56247 35076 ft 523 kts 50°
2026-04-25 14:53 40.22920 -74.46651 35107 ft 505 kts 32°
2026-04-25 14:53 40.28366 -74.40832 35090 ft 505 kts 32°
2026-04-25 14:54 40.33787 -74.35039 35121 ft 505 kts 32°
2026-04-25 14:54 40.39226 -74.29202 35111 ft 503 kts 32°
2026-04-25 14:55 40.44516 -74.23524 35118 ft 503 kts 32°
2026-04-25 14:55 40.49923 -74.17699 35120 ft 503 kts 32°
2026-04-25 14:56 40.55373 -74.11821 35120 ft 503 kts 32°
2026-04-25 14:56 40.60784 -74.05969 35142 ft 503 kts 32°
2026-04-25 14:57 40.66194 -74.00108 35171 ft 504 kts 32°
2026-04-25 14:57 40.70674 -73.95243 35132 ft 498 kts 32°
2026-04-25 14:58 40.76055 -73.89389 35111 ft 500 kts 32°
2026-04-25 14:58 40.81375 -73.83588 35108 ft 500 kts 32°
2026-04-25 14:59 40.86931 -73.78271 35130 ft 488 kts 20°
2026-04-25 14:59 40.93123 -73.74987 35124 ft 479 kts 12°
2026-04-25 15:00 40.99404 -73.71987 35117 ft 478 kts 12°
2026-04-25 15:00 41.05676 -73.68990 35115 ft 479 kts 12°
2026-04-25 15:01 41.11928 -73.65991 35118 ft 479 kts 12°
2026-04-25 15:01 41.18151 -73.63002 35123 ft 476 kts 12°
2026-04-25 15:02 41.24371 -73.60011 35138 ft 476 kts 12°
2026-04-25 15:02 41.30666 -73.57768 35150 ft 462 kts 359°
2026-04-25 15:03 41.37056 -73.56896 35149 ft 461 kts 359°
2026-04-25 15:03 41.43437 -73.56033 35159 ft 461 kts 359°
2026-04-25 15:04 41.49814 -73.55170 35125 ft 460 kts 359°
2026-04-25 15:04 41.56196 -73.54303 35122 ft 460 kts 359°
2026-04-25 15:05 41.62562 -73.53439 35113 ft 461 kts 359°
2026-04-25 15:06 41.72156 -73.52130 35111 ft 461 kts 359°
2026-04-25 15:06 41.78491 -73.51265 35104 ft 460 kts 359°
2026-04-25 15:07 41.84864 -73.50392 35102 ft 460 kts 359°
2026-04-25 15:07 41.91246 -73.49517 35098 ft 461 kts 359°
2026-04-25 15:08 41.97634 -73.48639 35097 ft 461 kts 359°
2026-04-25 15:08 42.04014 -73.47760 35100 ft 462 kts 359°
2026-04-25 15:09 42.10401 -73.46878 35079 ft 461 kts 359°
2026-04-25 15:09 42.19963 -73.45555 35079 ft 461 kts 359°
2026-04-25 15:10 42.26353 -73.44669 35083 ft 462 kts 359°
2026-04-25 15:11 42.35938 -73.43337 35088 ft 462 kts 359°
2026-04-25 15:11 42.42344 -73.42442 35108 ft 462 kts 359°
2026-04-25 15:12 42.51947 -73.41101 35075 ft 462 kts 359°
2026-04-25 15:12 42.56186 -73.40507 35076 ft 462 kts 359°
2026-04-25 15:13 42.67927 -73.38858 35114 ft 463 kts 359°
2026-04-25 15:14 42.74332 -73.37954 35110 ft 462 kts 359°
2026-04-25 15:14 42.80710 -73.37056 35115 ft 463 kts 359°
2026-04-25 15:15 42.86088 -73.36294 35100 ft 463 kts 359°
2026-04-25 15:15 42.93562 -73.35235 35103 ft 463 kts 359°
2026-04-25 15:16 42.99966 -73.34342 35113 ft 460 kts 356°
2026-04-25 15:16 43.09559 -73.33343 35100 ft 462 kts 357°
2026-04-25 15:17 43.19221 -73.32349 35120 ft 463 kts 357°
2026-04-25 15:18 43.25609 -73.31675 35104 ft 462 kts 357°
2026-04-25 15:18 43.35255 -73.30670 35107 ft 463 kts 357°
2026-04-25 15:19 43.39569 -73.30215 35122 ft 464 kts 357°
2026-04-25 15:19 43.48063 -73.29321 35104 ft 459 kts 357°
2026-04-25 15:20 43.54435 -73.28655 35104 ft 459 kts 357°
2026-04-25 15:20 43.60793 -73.27981 35102 ft 459 kts 357°
2026-04-25 15:21 43.67157 -73.27309 35107 ft 459 kts 357°
2026-04-25 15:21 43.73550 -73.26631 35100 ft 460 kts 357°
2026-04-25 15:22 43.79901 -73.25956 35108 ft 460 kts 357°
2026-04-25 15:22 43.86291 -73.25276 35116 ft 463 kts 357°
2026-04-25 15:23 43.92741 -73.24576 35111 ft 466 kts 359°
2026-04-25 15:23 43.99155 -73.22265 35130 ft 493 kts 16°
2026-04-25 15:24 44.02220 -73.20065 35129 ft 506 kts 25°
2026-04-25 15:24 44.05103 -73.17134 35136 ft 519 kts 34°
2026-04-25 15:24 44.07664 -73.13536 35138 ft 530 kts 43°
2026-04-25 15:24 44.08426 -73.12204 35138 ft 534 kts 47°
2026-04-25 15:25 44.14068 -73.00886 35127 ft 526 kts 47°
2026-04-25 15:25 44.18220 -72.92515 35149 ft 528 kts 47°
2026-04-25 15:26 44.22376 -72.84061 35155 ft 529 kts 48°
2026-04-25 15:26 44.26546 -72.75589 35185 ft 530 kts 47°
2026-04-25 15:27 44.30685 -72.67136 35155 ft 527 kts 47°
2026-04-25 15:28 44.36894 -72.54431 35151 ft 527 kts 48°
2026-04-25 15:28 44.40921 -72.46134 35134 ft 511 kts 47°
2026-04-25 15:29 44.44924 -72.37911 35136 ft 509 kts 47°
2026-04-25 15:29 44.48901 -72.29681 35131 ft 509 kts 47°
2026-04-25 15:30 44.52869 -72.21460 35131 ft 510 kts 47°
2026-04-25 15:30 44.56808 -72.13270 35150 ft 509 kts 47°
2026-04-25 15:31 44.60753 -72.05048 35144 ft 507 kts 47°
2026-04-25 15:31 44.64611 -71.96985 35171 ft 507 kts 47°
2026-04-25 15:32 44.68529 -71.88764 35145 ft 506 kts 47°
2026-04-25 15:32 44.72438 -71.80556 35149 ft 506 kts 47°
2026-04-25 15:33 44.78281 -71.68227 35158 ft 508 kts 47°
2026-04-25 15:33 44.82225 -71.59875 35160 ft 512 kts 47°
2026-04-25 15:34 44.86150 -71.51536 35176 ft 513 kts 47°
2026-04-25 15:34 44.88773 -71.45952 35152 ft 510 kts 47°
2026-04-25 15:35 44.95939 -71.30642 35147 ft 510 kts 47°
2026-04-25 15:36 45.01800 -71.18065 35154 ft 511 kts 48°
2026-04-25 15:36 45.05689 -71.09678 35155 ft 512 kts 48°
2026-04-25 15:37 45.09615 -71.01192 35159 ft 517 kts 50°
2026-04-25 15:37 45.11318 -70.96656 35165 ft 528 kts 57°
2026-04-25 15:37 45.12814 -70.91896 35162 ft 529 kts 58°
2026-04-25 15:38 45.15773 -70.82411 35179 ft 529 kts 58°
2026-04-25 15:38 45.18768 -70.72846 35153 ft 530 kts 58°
2026-04-25 15:39 45.21735 -70.63287 35157 ft 530 kts 58°
2026-04-25 15:39 45.24701 -70.53727 35155 ft 530 kts 58°
2026-04-25 15:40 45.26686 -70.47295 35151 ft 530 kts 58°
2026-04-25 15:40 45.30624 -70.34494 35140 ft 531 kts 59°
2026-04-25 15:41 45.33566 -70.24895 35143 ft 532 kts 59°
2026-04-25 15:41 45.36507 -70.15255 35145 ft 532 kts 59°
2026-04-25 15:42 45.38957 -70.07202 35142 ft 533 kts 59°
2026-04-25 15:42 45.41886 -69.97532 35145 ft 530 kts 61°
2026-04-25 15:43 45.44803 -69.87869 35138 ft 530 kts 60°
2026-04-25 15:43 45.47692 -69.78270 35138 ft 530 kts 60°
2026-04-25 15:44 45.50609 -69.68535 35136 ft 530 kts 60°
2026-04-25 15:44 45.53490 -69.58878 35161 ft 530 kts 61°
2026-04-25 15:45 45.56334 -69.49321 35139 ft 527 kts 62°
2026-04-25 15:45 45.58721 -69.41265 35128 ft 527 kts 62°
2026-04-25 15:46 45.62048 -69.29982 35128 ft 528 kts 62°
2026-04-25 15:46 45.64870 -69.20383 35122 ft 528 kts 62°
2026-04-25 15:47 45.67717 -69.10651 35128 ft 525 kts 62°
2026-04-25 15:47 45.70534 -69.01000 35126 ft 525 kts 62°
2026-04-25 15:48 45.73318 -68.91407 35127 ft 525 kts 62°
2026-04-25 15:48 45.76114 -68.81749 35130 ft 525 kts 62°
2026-04-25 15:49 45.78902 -68.72073 35138 ft 525 kts 63°
2026-04-25 15:49 45.81668 -68.62445 35118 ft 522 kts 63°
2026-04-25 15:50 45.84429 -68.52785 35112 ft 523 kts 63°
2026-04-25 15:50 45.87177 -68.43133 35109 ft 523 kts 63°
2026-04-25 15:51 45.89459 -68.35103 35100 ft 523 kts 64°
2026-04-25 15:51 45.92652 -68.23796 35111 ft 520 kts 64°
2026-04-25 15:52 45.95375 -68.14131 35116 ft 521 kts 65°
2026-04-25 15:52 45.98057 -68.04556 35092 ft 520 kts 65°
2026-04-25 15:53 46.00737 -67.94964 35087 ft 519 kts 65°
2026-04-25 15:53 46.03449 -67.85316 35084 ft 518 kts 61°
2026-04-25 15:54 46.07291 -67.76676 35081 ft 512 kts 51°
2026-04-25 15:54 46.11439 -67.68360 35079 ft 512 kts 51°
2026-04-25 15:55 46.15570 -67.60006 35084 ft 512 kts 51°
2026-04-25 15:55 46.19715 -67.51626 35098 ft 512 kts 52°
2026-04-25 15:56 46.23841 -67.43249 35083 ft 511 kts 52°
2026-04-25 15:56 46.27941 -67.34895 35081 ft 511 kts 52°
2026-04-25 15:57 46.32045 -67.26514 35083 ft 511 kts 52°
2026-04-25 15:57 46.36141 -67.18126 35080 ft 506 kts 52°
2026-04-25 15:58 46.40207 -67.09778 35083 ft 507 kts 52°
2026-04-25 15:58 46.44257 -67.01420 35076 ft 507 kts 52°
2026-04-25 15:59 46.48290 -66.93091 35078 ft 507 kts 52°
2026-04-25 15:59 46.52343 -66.84683 35076 ft 507 kts 53°
2026-04-25 16:00 46.55020 -66.79123 35078 ft 507 kts 53°
2026-04-25 16:00 46.60435 -66.67831 35060 ft 509 kts 53°
2026-04-25 16:01 46.64484 -66.59367 35070 ft 507 kts 53°
2026-04-25 16:01 46.68474 -66.50984 35060 ft 504 kts 53°
2026-04-25 16:02 46.72450 -66.42626 35060 ft 505 kts 53°
2026-04-25 16:02 46.74453 -66.38396 35238 ft 503 kts 53°
2026-04-25 16:02 46.76427 -66.34222 35481 ft 505 kts 53°
2026-04-25 16:03 46.78434 -66.29980 35731 ft 507 kts 53°
2026-04-25 16:03 46.80430 -66.25753 35980 ft 504 kts 53°
2026-04-25 16:03 46.82414 -66.21539 36223 ft 504 kts 53°
2026-04-25 16:03 46.84400 -66.17316 36462 ft 505 kts 53°
2026-04-25 16:04 46.86396 -66.13070 36712 ft 506 kts 53°
2026-04-25 16:04 46.88392 -66.08816 36962 ft 507 kts 53°
2026-04-25 16:04 46.92374 -66.00302 37055 ft 505 kts 53°
2026-04-25 16:05 46.96295 -65.91899 37034 ft 499 kts 53°
2026-04-25 16:06 47.02185 -65.79227 37052 ft 503 kts 53°
2026-04-25 16:06 47.06114 -65.70740 37051 ft 503 kts 53°
2026-04-25 16:07 47.10044 -65.62226 37061 ft 503 kts 54°
2026-04-25 16:07 47.13943 -65.53753 37054 ft 502 kts 54°
2026-04-25 16:08 47.17855 -65.45225 37055 ft 502 kts 54°
2026-04-25 16:08 47.21751 -65.36706 37052 ft 502 kts 54°
2026-04-25 16:09 47.25627 -65.28205 37036 ft 502 kts 54°
2026-04-25 16:09 47.29516 -65.19648 37038 ft 503 kts 54°
2026-04-25 16:10 47.33399 -65.11076 37030 ft 504 kts 54°
2026-04-25 16:10 47.37282 -65.02479 37025 ft 503 kts 54°
2026-04-25 16:11 47.41155 -64.93879 37025 ft 502 kts 54°
2026-04-25 16:11 47.45016 -64.85276 37021 ft 502 kts 54°
2026-04-25 16:12 47.48876 -64.76650 37022 ft 502 kts 54°
2026-04-25 16:12 47.52717 -64.68039 37017 ft 502 kts 54°
2026-04-25 16:13 47.56570 -64.59374 37019 ft 502 kts 55°
2026-04-25 16:13 47.60402 -64.50727 37018 ft 502 kts 55°
2026-04-25 16:14 47.64230 -64.42064 37012 ft 502 kts 55°
2026-04-25 16:14 47.68012 -64.33477 37010 ft 500 kts 54°
2026-04-25 16:15 47.71822 -64.24801 37002 ft 499 kts 54°
2026-04-25 16:15 47.75597 -64.16182 37000 ft 497 kts 55°
2026-04-25 16:16 47.79366 -64.07536 36999 ft 498 kts 54°
2026-04-25 16:16 47.83136 -63.98866 37001 ft 498 kts 55°
2026-04-25 16:17 47.86891 -63.90208 36986 ft 495 kts 54°
2026-04-25 16:17 47.90618 -63.81586 36987 ft 495 kts 54°
2026-04-25 16:18 47.94336 -63.72951 36979 ft 494 kts 55°
2026-04-25 16:18 47.98068 -63.64282 36984 ft 496 kts 54°
2026-04-25 16:19 48.01746 -63.55648 36947 ft 496 kts 54°
2026-04-25 16:19 48.05481 -63.46929 36946 ft 498 kts 55°
2026-04-25 16:20 48.11045 -63.33814 36972 ft 497 kts 54°
2026-04-25 16:21 48.16599 -63.20688 36981 ft 495 kts 55°
2026-04-25 16:21 48.20257 -63.12014 36956 ft 495 kts 56°
2026-04-25 16:22 48.23944 -63.03215 36952 ft 495 kts 55°
2026-04-25 16:22 48.27588 -62.94520 36938 ft 495 kts 56°
2026-04-25 16:23 48.31238 -62.85756 36951 ft 497 kts 56°
2026-04-25 16:23 48.34893 -62.76976 36947 ft 496 kts 56°
2026-04-25 16:24 48.38539 -62.68163 36943 ft 498 kts 55°
2026-04-25 16:24 48.42206 -62.59305 36935 ft 496 kts 56°
2026-04-25 16:25 48.45855 -62.50429 36927 ft 500 kts 56°
2026-04-25 16:25 48.49501 -62.41543 36932 ft 500 kts 56°
2026-04-25 16:26 48.53156 -62.32606 36921 ft 500 kts 56°
2026-04-25 16:26 48.56811 -62.23639 36910 ft 501 kts 56°
2026-04-25 16:27 48.60461 -62.14654 36909 ft 501 kts 56°
2026-04-25 16:27 48.64093 -62.05683 36903 ft 501 kts 56°
2026-04-25 16:28 48.67705 -61.96731 36902 ft 501 kts 56°
2026-04-25 16:28 48.71326 -61.87727 36894 ft 501 kts 56°
2026-04-25 16:29 48.74947 -61.78702 36891 ft 500 kts 56°
2026-04-25 16:29 48.77945 -61.71184 36888 ft 500 kts 56°
2026-04-25 16:30 48.81544 -61.62161 36895 ft 501 kts 56°
2026-04-25 16:30 48.85119 -61.53149 36882 ft 500 kts 57°
2026-04-25 16:31 48.88705 -61.44094 36881 ft 499 kts 56°
2026-04-25 16:31 48.92270 -61.35043 36866 ft 501 kts 57°
2026-04-25 16:32 48.95836 -61.25964 36864 ft 500 kts 57°
2026-04-25 16:32 48.99417 -61.16824 36854 ft 502 kts 57°
2026-04-25 16:33 49.02974 -61.07708 36860 ft 500 kts 57°
2026-04-25 16:33 49.06511 -60.98620 36849 ft 501 kts 57°
2026-04-25 16:34 49.10056 -60.89460 36841 ft 501 kts 57°
2026-04-25 16:34 49.13588 -60.80321 36839 ft 500 kts 57°
2026-04-25 16:35 49.17122 -60.71134 36837 ft 501 kts 57°
2026-04-25 16:35 49.20646 -60.61948 36836 ft 500 kts 57°
2026-04-25 16:36 49.24154 -60.52767 36835 ft 501 kts 58°
2026-04-25 16:36 49.27649 -60.43593 36829 ft 500 kts 58°
2026-04-25 16:37 49.31154 -60.34358 36828 ft 501 kts 58°
2026-04-25 16:37 49.34627 -60.25174 36824 ft 500 kts 58°
2026-04-25 16:38 49.38111 -60.15929 36833 ft 500 kts 58°
2026-04-25 16:38 49.41589 -60.06669 36815 ft 499 kts 58°
2026-04-25 16:39 49.45040 -59.97445 36810 ft 498 kts 58°
2026-04-25 16:39 49.48485 -59.88207 36810 ft 499 kts 58°
2026-04-25 16:40 49.51909 -59.78991 36808 ft 499 kts 58°
2026-04-25 16:40 49.55368 -59.69650 36805 ft 498 kts 58°
2026-04-25 16:41 49.58773 -59.60419 36805 ft 499 kts 58°
2026-04-25 16:41 49.63909 -59.46440 36811 ft 500 kts 58°
2026-04-25 16:42 49.67335 -59.37070 36792 ft 499 kts 58°
2026-04-25 16:42 49.70716 -59.27779 36790 ft 500 kts 58°
2026-04-25 16:43 49.74120 -59.18411 36797 ft 498 kts 58°
2026-04-25 16:43 49.77505 -59.09046 36781 ft 497 kts 59°
2026-04-25 16:44 49.80878 -58.99696 36772 ft 498 kts 59°
2026-04-25 16:44 49.84242 -58.90317 36771 ft 497 kts 59°
2026-04-25 16:45 49.87593 -58.80959 36794 ft 498 kts 59°
2026-04-25 16:45 49.90951 -58.71537 36780 ft 497 kts 59°
2026-04-25 16:46 49.94250 -58.62247 36766 ft 495 kts 59°
2026-04-25 16:46 49.97041 -58.54368 36763 ft 497 kts 59°
2026-04-25 16:47 50.00883 -58.43471 36761 ft 495 kts 59°
2026-04-25 16:47 50.04204 -58.34013 36764 ft 496 kts 60°
2026-04-25 16:48 50.07486 -58.24650 36758 ft 496 kts 59°
2026-04-25 16:48 50.10775 -58.15194 36754 ft 495 kts 59°
2026-04-25 16:49 50.14064 -58.05740 36754 ft 497 kts 60°
2026-04-25 16:49 50.17345 -57.96257 36757 ft 496 kts 60°
2026-04-25 16:50 50.20603 -57.86816 36753 ft 497 kts 60°
2026-04-25 16:50 50.23883 -57.77261 36762 ft 499 kts 60°
2026-04-25 16:51 50.27159 -57.67696 36758 ft 498 kts 60°
2026-04-25 16:51 50.29874 -57.59731 36761 ft 498 kts 60°
2026-04-25 16:52 50.33677 -57.48541 36756 ft 498 kts 60°
2026-04-25 16:52 50.36908 -57.38992 36764 ft 498 kts 60°
2026-04-25 16:53 50.41753 -57.24620 36759 ft 495 kts 60°
2026-04-25 16:54 50.44965 -57.15019 36758 ft 496 kts 60°
2026-04-25 16:54 50.48162 -57.05459 36748 ft 494 kts 60°
2026-04-25 16:55 50.51336 -56.95903 36753 ft 493 kts 61°
2026-04-25 16:55 50.54521 -56.86297 36748 ft 495 kts 61°
2026-04-25 16:56 50.57687 -56.76724 36750 ft 494 kts 61°
2026-04-25 16:56 50.60850 -56.67083 36731 ft 492 kts 61°
2026-04-25 16:57 50.63964 -56.57600 36727 ft 492 kts 61°
2026-04-25 16:57 50.67082 -56.48033 36731 ft 489 kts 61°
2026-04-25 16:58 50.70201 -56.38454 36724 ft 490 kts 62°
2026-04-25 16:58 50.73305 -56.28867 36717 ft 491 kts 62°
2026-04-25 16:59 50.76385 -56.19309 36709 ft 487 kts 62°
2026-04-25 16:59 50.79444 -56.09799 36698 ft 488 kts 62°
2026-04-25 17:00 50.82526 -56.00151 36700 ft 487 kts 62°
2026-04-25 17:00 50.85558 -55.90669 36681 ft 486 kts 62°
2026-04-25 17:01 50.88597 -55.81082 36678 ft 486 kts 62°
2026-04-25 17:01 50.91640 -55.71492 36675 ft 488 kts 62°
2026-04-25 17:02 50.94667 -55.61871 36675 ft 487 kts 62°
2026-04-25 17:02 50.97688 -55.52250 36657 ft 486 kts 62°
2026-04-25 17:03 51.00706 -55.42603 36656 ft 488 kts 62°
2026-04-25 17:03 51.03686 -55.33036 36679 ft 485 kts 62°
2026-04-25 17:04 51.06684 -55.23380 36654 ft 486 kts 62°
2026-04-25 17:04 51.09670 -55.13708 36654 ft 489 kts 62°
2026-04-25 17:05 51.12666 -55.03981 36629 ft 489 kts 62°
2026-04-25 17:05 51.17132 -54.89402 36627 ft 490 kts 63°
2026-04-25 17:06 51.20111 -54.79631 36630 ft 489 kts 63°
2026-04-25 17:06 51.23077 -54.69862 36614 ft 490 kts 63°
2026-04-25 17:07 51.26023 -54.60100 36615 ft 490 kts 63°
2026-04-25 17:07 51.28977 -54.50312 36606 ft 488 kts 64°
2026-04-25 17:08 51.31913 -54.40511 36604 ft 488 kts 63°
2026-04-25 17:08 51.34847 -54.30699 36602 ft 490 kts 64°
2026-04-25 17:09 51.37753 -54.20904 36596 ft 489 kts 64°
2026-04-25 17:09 51.40698 -54.10992 36570 ft 489 kts 64°
2026-04-25 17:10 51.43581 -54.01202 36593 ft 490 kts 64°
2026-04-25 17:10 51.46496 -53.91315 36575 ft 489 kts 64°
2026-04-25 17:11 51.48929 -53.81143 36598 ft 490 kts 74°
2026-04-25 17:11 51.50532 -53.70480 36578 ft 491 kts 75°
2026-04-25 17:12 51.52149 -53.59779 36587 ft 492 kts 75°
2026-04-25 17:12 51.53737 -53.49107 36584 ft 493 kts 75°
2026-04-25 17:13 51.54790 -53.42023 36564 ft 491 kts 75°
2026-04-25 17:13 51.56889 -53.27791 36580 ft 492 kts 75°
2026-04-25 17:14 51.58458 -53.17062 36568 ft 492 kts 75°
2026-04-25 17:14 51.60013 -53.06371 36573 ft 490 kts 75°
2026-04-25 17:15 51.61563 -52.95651 36569 ft 490 kts 76°
2026-04-25 17:15 51.63095 -52.84907 36555 ft 490 kts 76°
2026-04-25 17:16 51.64613 -52.74259 36556 ft 490 kts 76°
2026-04-25 17:16 51.66126 -52.63516 36557 ft 491 kts 76°
2026-04-25 17:17 51.67640 -52.52770 36531 ft 493 kts 76°
2026-04-25 17:17 51.69132 -52.42042 36550 ft 493 kts 76°
2026-04-25 17:18 51.70368 -52.33083 36529 ft 494 kts 76°
2026-04-25 17:18 51.72089 -52.20557 36521 ft 492 kts 76°
2026-04-25 17:19 51.73321 -52.11532 36520 ft 492 kts 76°
2026-04-25 17:19 51.74773 -52.00800 36529 ft 492 kts 76°
2026-04-25 17:20 51.76228 -51.89976 36516 ft 491 kts 76°
2026-04-25 17:20 51.77668 -51.79198 36519 ft 490 kts 77°
2026-04-25 17:21 51.79091 -51.68397 36514 ft 491 kts 77°
2026-04-25 17:21 51.80520 -51.57580 36521 ft 491 kts 77°
2026-04-25 17:22 51.81690 -51.48571 36513 ft 490 kts 77°
2026-04-25 17:22 51.83332 -51.35917 36497 ft 493 kts 77°
2026-04-25 17:23 51.84718 -51.25110 36499 ft 493 kts 78°
2026-04-25 17:23 51.86093 -51.14315 36503 ft 494 kts 77°
2026-04-25 17:24 51.87479 -51.03373 36502 ft 495 kts 78°
2026-04-25 17:24 51.88834 -50.92525 36502 ft 495 kts 78°
2026-04-25 17:25 51.90201 -50.81572 36503 ft 495 kts 78°
2026-04-25 17:25 51.91551 -50.70635 36495 ft 495 kts 78°
2026-04-25 17:26 51.92889 -50.59708 36497 ft 493 kts 78°
2026-04-25 17:26 51.94208 -50.48830 36492 ft 494 kts 78°
2026-04-25 17:27 51.95529 -50.37861 36479 ft 494 kts 78°
2026-04-25 17:27 51.96617 -50.28749 36484 ft 494 kts 78°
2026-04-25 17:28 51.98138 -50.15904 36485 ft 497 kts 79°
2026-04-25 17:28 51.99432 -50.04873 36469 ft 498 kts 79°
2026-04-25 17:29 52.00897 -49.93891 36473 ft 499 kts 77°
2026-04-25 17:29 52.02449 -49.83028 36481 ft 499 kts 77°
2026-04-25 17:30 52.04027 -49.72052 36476 ft 498 kts 77°
2026-04-25 17:30 52.05584 -49.61075 36479 ft 498 kts 77°
2026-04-25 17:31 52.07136 -49.50087 36476 ft 497 kts 77°
2026-04-25 17:31 52.08671 -49.39124 36474 ft 498 kts 77°
2026-04-25 17:32 52.10195 -49.28160 36475 ft 499 kts 77°
2026-04-25 17:32 52.11717 -49.17135 36476 ft 500 kts 77°
2026-04-25 17:33 52.13232 -49.06074 36469 ft 500 kts 77°
2026-04-25 17:33 52.14731 -48.95055 36465 ft 500 kts 78°
2026-04-25 17:34 52.16223 -48.83993 36469 ft 500 kts 78°
2026-04-25 17:34 52.17703 -48.72941 36465 ft 500 kts 78°
2026-04-25 17:35 52.19174 -48.61877 36469 ft 500 kts 78°
2026-04-25 17:35 52.20640 -48.50755 36478 ft 503 kts 78°
2026-04-25 17:36 52.22090 -48.39679 36464 ft 501 kts 78°
2026-04-25 17:36 52.23537 -48.28529 36466 ft 501 kts 78°
2026-04-25 17:37 52.24969 -48.17410 36465 ft 502 kts 78°
2026-04-25 17:37 52.26390 -48.06291 36474 ft 502 kts 78°
2026-04-25 17:38 52.27578 -47.96922 36464 ft 502 kts 78°
2026-04-25 17:38 52.29208 -47.83968 36461 ft 501 kts 79°
2026-04-25 17:39 52.30591 -47.72874 36465 ft 500 kts 79°
2026-04-25 17:39 52.31974 -47.61697 36477 ft 502 kts 79°
2026-04-25 17:40 52.33349 -47.50508 36478 ft 502 kts 79°
2026-04-25 17:40 52.34710 -47.39282 36487 ft 503 kts 79°
2026-04-25 17:41 52.36070 -47.28039 36463 ft 503 kts 80°
2026-04-25 17:41 52.37415 -47.16767 36470 ft 502 kts 80°
2026-04-25 17:42 52.38736 -47.05642 36472 ft 502 kts 80°
2026-04-25 17:42 52.40061 -46.94367 36466 ft 502 kts 80°
2026-04-25 17:43 52.41371 -46.83127 36476 ft 502 kts 80°
2026-04-25 17:43 52.42669 -46.71890 36483 ft 503 kts 80°
2026-04-25 17:44 52.43952 -46.60691 36487 ft 502 kts 81°
2026-04-25 17:44 52.45223 -46.49491 36484 ft 501 kts 81°
2026-04-25 17:45 52.46075 -46.41934 36480 ft 501 kts 81°
2026-04-25 17:45 52.47739 -46.27029 36488 ft 501 kts 81°
2026-04-25 17:46 52.48985 -46.15750 36481 ft 502 kts 81°
2026-04-25 17:46 52.50220 -46.04468 36491 ft 503 kts 81°
2026-04-25 17:47 52.51444 -45.93184 36496 ft 502 kts 81°
2026-04-25 17:47 52.52663 -45.81831 36490 ft 503 kts 81°
2026-04-25 17:48 52.54455 -45.64935 36495 ft 503 kts 82°
2026-04-25 17:49 52.55649 -45.53584 36482 ft 503 kts 82°
2026-04-25 17:49 52.56823 -45.42267 36493 ft 503 kts 82°
2026-04-25 17:50 52.57986 -45.30972 36498 ft 503 kts 82°
2026-04-25 17:50 52.59149 -45.19557 36492 ft 503 kts 82°
2026-04-25 17:51 52.60295 -45.08194 36496 ft 503 kts 82°
2026-04-25 17:51 52.61424 -44.96900 36504 ft 502 kts 82°
2026-04-25 17:52 52.62547 -44.85522 36503 ft 502 kts 82°
2026-04-25 17:52 52.63659 -44.74168 36509 ft 502 kts 83°
2026-04-25 17:53 52.64762 -44.62776 36512 ft 502 kts 82°
2026-04-25 17:53 52.65846 -44.51468 36511 ft 502 kts 83°
2026-04-25 17:54 52.66926 -44.40078 36511 ft 502 kts 83°
2026-04-25 17:54 52.67999 -44.28654 36522 ft 503 kts 83°
2026-04-25 17:55 52.69052 -44.17291 36524 ft 503 kts 83°
2026-04-25 17:55 52.70106 -44.05843 36536 ft 506 kts 83°
2026-04-25 17:56 52.71151 -43.94301 36533 ft 507 kts 83°
2026-04-25 17:56 52.72186 -43.82786 36542 ft 507 kts 83°
2026-04-25 17:57 52.73205 -43.71319 36539 ft 508 kts 84°
2026-04-25 17:57 52.74216 -43.59772 36546 ft 508 kts 84°
2026-04-25 17:58 52.75220 -43.48232 36546 ft 508 kts 84°
2026-04-25 17:58 52.76209 -43.36679 36555 ft 508 kts 84°
2026-04-25 17:59 52.77182 -43.25217 36549 ft 508 kts 85°
2026-04-25 17:59 52.78167 -43.13504 36556 ft 509 kts 85°
2026-04-25 18:00 52.78954 -43.03919 36558 ft 509 kts 85°
2026-04-25 18:00 52.80062 -42.90429 36565 ft 508 kts 85°
2026-04-25 18:01 52.80996 -42.78817 36564 ft 508 kts 85°
2026-04-25 18:01 52.81920 -42.67239 36572 ft 508 kts 85°
2026-04-25 18:02 52.82833 -42.55641 36594 ft 507 kts 86°
2026-04-25 18:02 52.83727 -42.44123 36582 ft 508 kts 86°
2026-04-25 18:03 52.84616 -42.32536 36589 ft 509 kts 86°
2026-04-25 18:03 52.85498 -42.20877 36600 ft 509 kts 86°
2026-04-25 18:04 52.86365 -42.09273 36597 ft 508 kts 86°
2026-04-25 18:04 52.87073 -41.99675 36586 ft 507 kts 86°
2026-04-25 18:05 52.87919 -41.88054 36604 ft 507 kts 86°
2026-04-25 18:05 52.88754 -41.76436 36604 ft 507 kts 87°
2026-04-25 18:06 52.89574 -41.64855 36604 ft 508 kts 87°
2026-04-25 18:06 52.90387 -41.53223 36599 ft 508 kts 87°
2026-04-25 18:07 52.91190 -41.41554 36612 ft 510 kts 87°
2026-04-25 18:07 52.91975 -41.29978 36613 ft 509 kts 87°
2026-04-25 18:08 52.92755 -41.18308 36615 ft 508 kts 87°
2026-04-25 18:08 52.93522 -41.06662 36614 ft 508 kts 87°
2026-04-25 18:09 52.94278 -40.94989 36623 ft 508 kts 88°
2026-04-25 18:09 52.95021 -40.83354 36625 ft 507 kts 88°
2026-04-25 18:10 52.95750 -40.71737 36642 ft 509 kts 88°
2026-04-25 18:10 52.96474 -40.60043 36641 ft 509 kts 88°
2026-04-25 18:11 52.97185 -40.48336 36651 ft 513 kts 88°
2026-04-25 18:11 52.97890 -40.36602 36648 ft 512 kts 88°
2026-04-25 18:12 52.98580 -40.24811 36655 ft 512 kts 88°
2026-04-25 18:12 52.99258 -40.13113 36650 ft 513 kts 88°
2026-04-25 18:13 52.99929 -40.01289 36658 ft 512 kts 88°
2026-04-25 18:13 53.00422 -39.89489 36664 ft 512 kts 89°
2026-04-25 18:14 53.01146 -39.71868 36678 ft 512 kts 90°
2026-04-25 18:14 53.01617 -39.60029 36669 ft 514 kts 90°
2026-04-25 18:15 53.02067 -39.48169 36685 ft 515 kts 90°
2026-04-25 18:15 53.02509 -39.36280 36684 ft 515 kts 90°
2026-04-25 18:16 53.02937 -39.24457 36693 ft 515 kts 90°
2026-04-25 18:17 53.03560 -39.06634 36694 ft 514 kts 90°
2026-04-25 18:17 53.03957 -38.94787 36697 ft 514 kts 90°
2026-04-25 18:18 53.04346 -38.82902 36711 ft 515 kts 90°
2026-04-25 18:18 53.04723 -38.70979 36696 ft 519 kts 91°
2026-04-25 18:19 53.05092 -38.59087 36700 ft 517 kts 91°
2026-04-25 18:19 53.05440 -38.47106 36696 ft 518 kts 91°
2026-04-25 18:20 53.05787 -38.35112 36694 ft 518 kts 91°
2026-04-25 18:20 53.06116 -38.23158 36710 ft 518 kts 91°
2026-04-25 18:21 53.06434 -38.11245 36706 ft 518 kts 91°
2026-04-25 18:21 53.06740 -37.99289 36716 ft 517 kts 91°
2026-04-25 18:22 53.07035 -37.87304 36716 ft 517 kts 91°
2026-04-25 18:22 53.07320 -37.75271 36733 ft 520 kts 91°
2026-04-25 18:23 53.07589 -37.63266 36729 ft 520 kts 91°
2026-04-25 18:23 53.07850 -37.51220 36741 ft 521 kts 91°
2026-04-25 18:24 53.08095 -37.39273 36739 ft 521 kts 91°
2026-04-25 18:24 53.08331 -37.27222 36742 ft 521 kts 91°
2026-04-25 18:25 53.08555 -37.15159 36741 ft 521 kts 92°
2026-04-25 18:25 53.08765 -37.03151 36765 ft 521 kts 92°
2026-04-25 18:26 53.08965 -36.91062 36757 ft 524 kts 92°
2026-04-25 18:26 53.09152 -36.79023 36759 ft 523 kts 92°
2026-04-25 18:27 53.09328 -36.66890 36760 ft 523 kts 92°
2026-04-25 18:27 53.09490 -36.54841 36769 ft 523 kts 92°
2026-04-25 18:28 53.09641 -36.42714 36772 ft 524 kts 92°
2026-04-25 18:28 53.09781 -36.30539 36778 ft 524 kts 92°
2026-04-25 18:29 53.09966 -36.12369 36787 ft 524 kts 92°
2026-04-25 18:30 53.10169 -35.88151 36787 ft 524 kts 92°
2026-04-25 18:30 53.10253 -35.76026 36800 ft 524 kts 92°
2026-04-25 18:31 53.10324 -35.63859 36799 ft 524 kts 92°
2026-04-25 18:31 53.10383 -35.51727 36806 ft 523 kts 93°
2026-04-25 18:32 53.10430 -35.39587 36802 ft 523 kts 93°
2026-04-25 18:32 53.10463 -35.27580 36811 ft 523 kts 93°
2026-04-25 18:33 53.10484 -35.15415 36815 ft 527 kts 93°
2026-04-25 18:33 53.10495 -35.03246 36824 ft 526 kts 93°
2026-04-25 18:34 53.10492 -34.91105 36821 ft 526 kts 93°
2026-04-25 18:34 53.10477 -34.78933 36830 ft 525 kts 93°
2026-04-25 18:35 53.10449 -34.66786 36830 ft 526 kts 93°
2026-04-25 18:35 53.10409 -34.54619 36833 ft 527 kts 93°
2026-04-25 18:36 53.10356 -34.42431 36835 ft 527 kts 93°
2026-04-25 18:36 53.10291 -34.30203 36836 ft 528 kts 94°
2026-04-25 18:37 53.10213 -34.17967 36850 ft 528 kts 94°
2026-04-25 18:37 53.10123 -34.05717 36858 ft 529 kts 94°
2026-04-25 18:38 53.10020 -33.93554 36865 ft 530 kts 94°
2026-04-25 18:38 53.09905 -33.81263 36873 ft 530 kts 94°
2026-04-25 18:39 53.09776 -33.69016 36876 ft 530 kts 94°
2026-04-25 18:39 53.09635 -33.56682 36880 ft 530 kts 94°
2026-04-25 18:40 53.09482 -33.44540 36877 ft 529 kts 94°
2026-04-25 18:40 53.09316 -33.32235 36877 ft 531 kts 94°
2026-04-25 18:41 53.09139 -33.19943 36878 ft 531 kts 94°
2026-04-25 18:41 53.08944 -33.07739 36881 ft 531 kts 94°
2026-04-25 18:42 53.08812 -32.99519 36888 ft 530 kts 94°
2026-04-25 18:42 53.08523 -32.83146 36888 ft 531 kts 94°
2026-04-25 18:43 53.08296 -32.70888 36896 ft 532 kts 94°
2026-04-25 18:43 53.08052 -32.58589 36905 ft 531 kts 95°
2026-04-25 18:44 53.07798 -32.46357 36902 ft 532 kts 95°
2026-04-25 18:44 53.07530 -32.34030 36902 ft 531 kts 95°
2026-04-25 18:45 53.07250 -32.21761 36895 ft 530 kts 95°
2026-04-25 18:45 53.06957 -32.09536 36909 ft 533 kts 95°
2026-04-25 18:46 53.06649 -31.97123 36912 ft 533 kts 95°
2026-04-25 18:46 53.06330 -31.84847 36922 ft 534 kts 95°
2026-04-25 18:47 53.05998 -31.72507 36921 ft 533 kts 95°
2026-04-25 18:47 53.05652 -31.60158 36926 ft 534 kts 95°
2026-04-25 18:48 53.05297 -31.47926 36912 ft 534 kts 95°
2026-04-25 18:48 53.04925 -31.35567 36925 ft 534 kts 95°
2026-04-25 18:49 53.04542 -31.23259 36932 ft 532 kts 95°
2026-04-25 18:49 53.04148 -31.11017 36932 ft 532 kts 95°
2026-04-25 18:50 53.03742 -30.98755 36928 ft 532 kts 95°
2026-04-25 18:50 53.03320 -30.86451 36935 ft 535 kts 95°
2026-04-25 18:51 53.03034 -30.78275 36912 ft 534 kts 95°
2026-04-25 18:51 53.02514 -30.63862 36941 ft 535 kts 95°
2026-04-25 18:52 53.02059 -30.51614 36943 ft 534 kts 96°
2026-04-25 18:52 53.01587 -30.39269 36947 ft 535 kts 96°
2026-04-25 18:53 53.01105 -30.26988 36947 ft 536 kts 96°
2026-04-25 18:53 53.00605 -30.14568 36947 ft 536 kts 96°
2026-04-25 18:54 53.00149 -29.96046 36972 ft 539 kts 88°
2026-04-25 18:55 53.00690 -29.83593 36949 ft 539 kts 87°
2026-04-25 18:55 53.01173 -29.71223 36955 ft 539 kts 88°
2026-04-25 18:56 53.01666 -29.58739 36960 ft 541 kts 88°
2026-04-25 18:56 53.02140 -29.46260 36960 ft 541 kts 88°
2026-04-25 18:57 53.02600 -29.33761 36959 ft 542 kts 88°
2026-04-25 18:57 53.03051 -29.21273 36963 ft 542 kts 88°
2026-04-25 18:58 53.03483 -29.08826 36960 ft 543 kts 88°
2026-04-25 18:58 53.04113 -28.90055 36959 ft 542 kts 88°
2026-04-25 18:59 53.04908 -28.64983 36955 ft 543 kts 88°
2026-04-25 19:00 53.05471 -28.46137 36967 ft 543 kts 88°
2026-04-25 19:01 53.06002 -28.27367 36971 ft 543 kts 88°
2026-04-25 19:01 53.06340 -28.14807 36977 ft 543 kts 88°
2026-04-25 19:02 53.06821 -27.96040 36972 ft 544 kts 89°
2026-04-25 19:03 53.07226 -27.79244 36972 ft 543 kts 89°
2026-04-25 19:03 53.07559 -27.64675 36978 ft 542 kts 89°
2026-04-25 19:04 53.07959 -27.45985 36976 ft 542 kts 89°
2026-04-25 19:05 53.08450 -27.20874 36981 ft 542 kts 89°
2026-04-25 19:06 53.08675 -27.08415 36975 ft 542 kts 89°
2026-04-25 19:06 53.08990 -26.89500 36983 ft 544 kts 89°
2026-04-25 19:07 53.09275 -26.70653 36976 ft 543 kts 90°
2026-04-25 19:08 53.09529 -26.51841 36974 ft 542 kts 90°
2026-04-25 19:09 53.09799 -26.28845 36984 ft 542 kts 90°
2026-04-25 19:10 53.10007 -26.07891 36991 ft 542 kts 90°
2026-04-25 19:10 53.10114 -25.95342 36987 ft 542 kts 90°
2026-04-25 19:11 53.10208 -25.82752 36992 ft 543 kts 90°
2026-04-25 19:11 53.10288 -25.70245 37003 ft 544 kts 90°
2026-04-25 19:12 53.10356 -25.57636 36990 ft 544 kts 90°
2026-04-25 19:12 53.10408 -25.45103 36997 ft 544 kts 90°
2026-04-25 19:13 53.10452 -25.32509 37002 ft 544 kts 91°
2026-04-25 19:13 53.10478 -25.19918 36996 ft 545 kts 91°
2026-04-25 19:14 53.10493 -25.07290 37002 ft 544 kts 91°
2026-04-25 19:14 53.10493 -24.94712 37009 ft 543 kts 91°
2026-04-25 19:15 53.10482 -24.82197 37007 ft 544 kts 91°
2026-04-25 19:15 53.10456 -24.69503 37010 ft 543 kts 91°
2026-04-25 19:16 53.10418 -24.57020 37013 ft 543 kts 91°
2026-04-25 19:16 53.10365 -24.44403 37015 ft 543 kts 91°
2026-04-25 19:17 53.10301 -24.31912 37013 ft 544 kts 91°
2026-04-25 19:17 53.10222 -24.19293 37014 ft 544 kts 91°
2026-04-25 19:18 53.10131 -24.06740 37006 ft 543 kts 92°
2026-04-25 19:18 53.10026 -23.94172 37008 ft 542 kts 92°
2026-04-25 19:19 53.09908 -23.81666 37013 ft 540 kts 92°
2026-04-25 19:19 53.09777 -23.69100 37007 ft 540 kts 92°
2026-04-25 19:20 53.09633 -23.56626 37016 ft 540 kts 92°
2026-04-25 19:20 53.09477 -23.44135 37018 ft 540 kts 92°
2026-04-25 19:21 53.09307 -23.31641 37019 ft 540 kts 92°
2026-04-25 19:21 53.09028 -23.12948 37027 ft 541 kts 93°
2026-04-25 19:22 53.08826 -23.00416 37026 ft 541 kts 93°
2026-04-25 19:23 53.08496 -22.81604 37029 ft 541 kts 93°
2026-04-25 19:23 53.08139 -22.62928 37019 ft 539 kts 93°
2026-04-25 19:24 53.07885 -22.50448 37025 ft 539 kts 94°
2026-04-25 19:25 53.07337 -22.25529 37027 ft 539 kts 94°
2026-04-25 19:25 53.07046 -22.13185 37029 ft 538 kts 94°
2026-04-25 19:26 53.06741 -22.00773 37029 ft 538 kts 94°
2026-04-25 19:26 53.06420 -21.88265 37030 ft 540 kts 94°
2026-04-25 19:27 53.06202 -21.79999 37027 ft 540 kts 94°
2026-04-25 19:27 53.05745 -21.63418 37035 ft 539 kts 94°
2026-04-25 19:28 53.05386 -21.50943 37036 ft 538 kts 95°
2026-04-25 19:28 53.05018 -21.38616 37051 ft 536 kts 95°
2026-04-25 19:29 53.04635 -21.26211 37052 ft 536 kts 95°
2026-04-25 19:29 53.04240 -21.13836 37056 ft 536 kts 95°
2026-04-25 19:30 53.03833 -21.01490 37054 ft 537 kts 95°
2026-04-25 19:30 53.03411 -20.89069 37056 ft 537 kts 95°
2026-04-25 19:31 53.02978 -20.76722 37060 ft 537 kts 95°
2026-04-25 19:31 53.02531 -20.64321 37065 ft 537 kts 95°
2026-04-25 19:32 53.02071 -20.51922 37064 ft 537 kts 95°
2026-04-25 19:32 53.01759 -20.43717 37064 ft 537 kts 96°
2026-04-25 19:33 53.01114 -20.27215 37070 ft 537 kts 96°
2026-04-25 19:33 53.00618 -20.14865 37067 ft 533 kts 96°
2026-04-25 19:34 53.00108 -20.02560 37065 ft 533 kts 96°
2026-04-25 19:34 53.00187 -19.90263 37076 ft 536 kts 89°
2026-04-25 19:35 53.00457 -19.77894 37080 ft 536 kts 90°
2026-04-25 19:35 53.00667 -19.65506 37084 ft 537 kts 90°
2026-04-25 19:36 53.00898 -19.53175 37091 ft 536 kts 90°
2026-04-25 19:36 53.01093 -19.40780 37087 ft 535 kts 90°
2026-04-25 19:37 53.01290 -19.28449 37090 ft 535 kts 90°
2026-04-25 19:37 53.01465 -19.16077 37084 ft 535 kts 90°
2026-04-25 19:38 53.01606 -19.05803 37077 ft 534 kts 91°
2026-04-25 19:38 53.01760 -18.93447 37091 ft 535 kts 91°
2026-04-25 19:39 53.01902 -18.81176 37087 ft 534 kts 91°
2026-04-25 19:39 53.02032 -18.68755 37097 ft 535 kts 91°
2026-04-25 19:40 53.02149 -18.56375 37084 ft 535 kts 91°
2026-04-25 19:40 53.02252 -18.44076 37093 ft 535 kts 91°
2026-04-25 19:41 53.02344 -18.31699 37098 ft 534 kts 92°
2026-04-25 19:41 53.02409 -18.21424 37096 ft 534 kts 92°
2026-04-25 19:42 53.02487 -18.06984 37102 ft 536 kts 92°
2026-04-25 19:42 53.02540 -17.94585 37108 ft 536 kts 92°
2026-04-25 19:43 53.02580 -17.82174 37112 ft 537 kts 92°
2026-04-25 19:43 53.02607 -17.69826 37112 ft 537 kts 92°
2026-04-25 19:44 53.02621 -17.57388 37116 ft 536 kts 92°
2026-04-25 19:44 53.02622 -17.44975 37108 ft 537 kts 93°
2026-04-25 19:45 53.02611 -17.32629 37129 ft 537 kts 93°
2026-04-25 19:45 53.02586 -17.20247 37134 ft 537 kts 93°
2026-04-25 19:46 53.02549 -17.07787 37128 ft 537 kts 93°
2026-04-25 19:46 53.02499 -16.95375 37127 ft 534 kts 93°
2026-04-25 19:47 53.02435 -16.83038 37123 ft 534 kts 94°
2026-04-25 19:47 53.02360 -16.70757 37133 ft 533 kts 94°
2026-04-25 19:48 53.02272 -16.58420 37129 ft 534 kts 94°
2026-04-25 19:48 53.02171 -16.46120 37134 ft 533 kts 94°
2026-04-25 19:49 53.02077 -16.35878 37134 ft 533 kts 94°
2026-04-25 19:49 53.01931 -16.21488 37137 ft 533 kts 94°
2026-04-25 19:50 53.01717 -16.03011 37142 ft 533 kts 94°
2026-04-25 19:51 53.01561 -15.90792 37145 ft 533 kts 94°
2026-04-25 19:51 53.01390 -15.78474 37147 ft 533 kts 94°
2026-04-25 19:52 53.01207 -15.66200 37143 ft 532 kts 95°
2026-04-25 19:52 53.01010 -15.53900 37143 ft 533 kts 95°
2026-04-25 19:53 53.00801 -15.41561 37151 ft 533 kts 95°
2026-04-25 19:53 53.00581 -15.29346 37140 ft 533 kts 95°
2026-04-25 19:54 53.00347 -15.17045 37160 ft 533 kts 95°
2026-04-25 19:54 53.00100 -15.04713 37156 ft 533 kts 95°
2026-04-25 19:55 53.00042 -14.92433 37165 ft 533 kts 92°
2026-04-25 19:55 53.00062 -14.80171 37175 ft 534 kts 92°
2026-04-25 19:56 53.00097 -14.67861 37179 ft 533 kts 92°
2026-04-25 19:56 53.00104 -14.55549 37191 ft 533 kts 93°
2026-04-25 19:56 53.00104 -14.49380 37462 ft 533 kts 92°
2026-04-25 19:57 53.00105 -14.43204 37713 ft 534 kts 92°
2026-04-25 19:57 53.00101 -14.37062 37989 ft 535 kts 93°
2026-04-25 19:57 53.00091 -14.30877 38244 ft 535 kts 92°
2026-04-25 19:57 53.00079 -14.24760 38508 ft 535 kts 92°
2026-04-25 19:58 53.00065 -14.18523 38787 ft 534 kts 92°
2026-04-25 19:58 53.00048 -14.12430 39009 ft 534 kts 92°
2026-04-25 19:58 53.00026 -14.06231 39178 ft 535 kts 92°
2026-04-25 19:59 52.99513 -13.94008 39185 ft 529 kts 101°
2026-04-25 19:59 52.98478 -13.81932 39178 ft 528 kts 100°
2026-04-25 20:00 52.97471 -13.69923 39180 ft 528 kts 101°
2026-04-25 20:00 52.96416 -13.57817 39180 ft 529 kts 101°
2026-04-25 20:01 52.94844 -13.39790 39183 ft 527 kts 101°
2026-04-25 20:01 52.93776 -13.27779 39184 ft 527 kts 101°
2026-04-25 20:02 52.92694 -13.15725 39192 ft 527 kts 101°
2026-04-25 20:02 52.91602 -13.03726 39192 ft 527 kts 101°
2026-04-25 20:03 52.90508 -12.91822 39191 ft 526 kts 101°
2026-04-25 20:03 52.89392 -12.79836 39189 ft 526 kts 101°
2026-04-25 20:04 52.88264 -12.67845 39197 ft 527 kts 101°
2026-04-25 20:04 52.87125 -12.55874 39196 ft 527 kts 101°
2026-04-25 20:05 52.85963 -12.43801 39195 ft 526 kts 101°
2026-04-25 20:05 52.84808 -12.31917 39197 ft 527 kts 101°
2026-04-25 20:06 52.83630 -12.19940 39201 ft 527 kts 102°
2026-04-25 20:06 52.82522 -12.08783 39207 ft 528 kts 102°
2026-04-25 20:07 52.81322 -11.96824 39205 ft 527 kts 102°
2026-04-25 20:07 52.80117 -11.84941 39203 ft 527 kts 102°
2026-04-25 20:08 52.78887 -11.72942 39203 ft 527 kts 102°
2026-04-25 20:08 52.77656 -11.61059 39198 ft 528 kts 102°
2026-04-25 20:09 52.76406 -11.49102 39204 ft 528 kts 102°
2026-04-25 20:09 52.75147 -11.37187 39203 ft 528 kts 102°
2026-04-25 20:10 52.73874 -11.25262 39204 ft 527 kts 102°
2026-04-25 20:10 52.72587 -11.13326 39198 ft 528 kts 102°
2026-04-25 20:11 52.71285 -11.01358 39212 ft 529 kts 102°
2026-04-25 20:11 52.69984 -10.89526 39212 ft 528 kts 102°
2026-04-25 20:12 52.68657 -10.77574 39219 ft 528 kts 102°
2026-04-25 20:12 52.67765 -10.69612 39208 ft 528 kts 102°
2026-04-25 20:13 52.65973 -10.53732 39222 ft 528 kts 102°
2026-04-25 20:13 52.64615 -10.41853 39226 ft 528 kts 102°
2026-04-25 20:14 52.63246 -10.29974 39223 ft 528 kts 103°
2026-04-25 20:14 52.61871 -10.18154 39225 ft 528 kts 103°
2026-04-25 20:15 52.60463 -10.06171 39227 ft 529 kts 103°
2026-04-25 20:15 52.59064 -9.94363 39222 ft 530 kts 103°
2026-04-25 20:16 52.57650 -9.82539 39217 ft 529 kts 103°
2026-04-25 20:16 52.56208 -9.70587 39217 ft 529 kts 103°
2026-04-25 20:17 52.54775 -9.58765 39212 ft 529 kts 103°
2026-04-25 20:17 52.53311 -9.46927 39212 ft 529 kts 103°
2026-04-25 20:18 52.51855 -9.35124 39207 ft 529 kts 103°
2026-04-25 20:18 52.50364 -9.23225 39209 ft 528 kts 103°
2026-04-25 20:19 52.48877 -9.11419 39202 ft 528 kts 103°
2026-04-25 20:19 52.47398 -8.99790 39202 ft 528 kts 103°
2026-04-25 20:20 52.45882 -8.87967 39206 ft 529 kts 103°
2026-04-25 20:20 52.44361 -8.76200 39200 ft 528 kts 103°
2026-04-25 20:21 52.42818 -8.64369 39197 ft 529 kts 103°
2026-04-25 20:21 52.41278 -8.52654 39196 ft 528 kts 103°
2026-04-25 20:22 52.40237 -8.44793 39190 ft 528 kts 103°
2026-04-25 20:22 52.38410 -8.31087 39195 ft 529 kts 103°
2026-04-25 20:23 52.36564 -8.17386 39197 ft 528 kts 104°
2026-04-25 20:23 52.35228 -8.07538 39196 ft 529 kts 104°
2026-04-25 20:24 52.33633 -7.95875 39192 ft 529 kts 104°
2026-04-25 20:24 52.32010 -7.84092 39195 ft 530 kts 104°
2026-04-25 20:25 52.30379 -7.72352 39206 ft 530 kts 104°
2026-04-25 20:25 52.28734 -7.60603 39203 ft 530 kts 104°
2026-04-25 20:26 52.27087 -7.48932 39204 ft 530 kts 104°
2026-04-25 20:26 52.25420 -7.37205 39207 ft 529 kts 104°
2026-04-25 20:27 52.23739 -7.25476 39205 ft 530 kts 104°
2026-04-25 20:27 52.22058 -7.13834 39206 ft 530 kts 104°
2026-04-25 20:28 52.20349 -7.02083 39205 ft 530 kts 104°
2026-04-25 20:28 52.18643 -6.90446 39208 ft 530 kts 104°
2026-04-25 20:29 52.16924 -6.78808 39211 ft 531 kts 104°
2026-04-25 20:29 52.15176 -6.67057 39213 ft 530 kts 104°
2026-04-25 20:30 52.13433 -6.55429 39212 ft 530 kts 104°
2026-04-25 20:30 52.11676 -6.43798 39213 ft 530 kts 104°
2026-04-25 20:31 52.09912 -6.32200 39223 ft 529 kts 104°
2026-04-25 20:31 52.08128 -6.20554 39224 ft 529 kts 104°
2026-04-25 20:32 52.06336 -6.08944 39225 ft 529 kts 105°
2026-04-25 20:32 52.04415 -5.97419 39223 ft 529 kts 106°
2026-04-25 20:33 52.02497 -5.85928 39228 ft 528 kts 106°
2026-04-25 20:33 52.00833 -5.76421 39223 ft 525 kts 107°
2026-04-25 20:34 51.98530 -5.63074 39225 ft 525 kts 106°
2026-04-25 20:34 51.96536 -5.51707 39223 ft 525 kts 107°
2026-04-25 20:35 51.94538 -5.40322 39220 ft 525 kts 107°
2026-04-25 20:35 51.92523 -5.28943 39208 ft 525 kts 107°
2026-04-25 20:36 51.90794 -5.17391 39215 ft 528 kts 101°
2026-04-25 20:36 51.89472 -5.05711 39207 ft 527 kts 101°
2026-04-25 20:37 51.88080 -4.94094 39214 ft 528 kts 101°
2026-04-25 20:37 51.86713 -4.82455 39215 ft 524 kts 101°
2026-04-25 20:38 51.85322 -4.70907 39212 ft 525 kts 101°
2026-04-25 20:38 51.83927 -4.59334 39216 ft 525 kts 101°
2026-04-25 20:39 51.83225 -4.53555 39405 ft 522 kts 101°
2026-04-25 20:39 51.82510 -4.47725 39638 ft 522 kts 101°
2026-04-25 20:39 51.81814 -4.42053 39872 ft 522 kts 101°
2026-04-25 20:39 51.81341 -4.38203 40020 ft 522 kts 101°
2026-04-25 20:40 51.80391 -4.30510 40322 ft 522 kts 102°
2026-04-25 20:40 51.79677 -4.24776 40558 ft 522 kts 102°
2026-04-25 20:40 51.78959 -4.19026 40791 ft 522 kts 102°
2026-04-25 20:40 51.78239 -4.13271 41028 ft 521 kts 102°
2026-04-25 20:41 51.77516 -4.07527 41212 ft 522 kts 102°
2026-04-25 20:41 51.76789 -4.01774 41209 ft 524 kts 102°
2026-04-25 20:41 51.75329 -3.90292 41208 ft 525 kts 102°
2026-04-25 20:42 51.73843 -3.78711 41226 ft 526 kts 102°
2026-04-25 20:42 51.72353 -3.67188 41221 ft 526 kts 102°
2026-04-25 20:43 51.70915 -3.55596 41223 ft 526 kts 95°
2026-04-25 20:43 51.70248 -3.43837 41199 ft 526 kts 95°
2026-04-25 20:44 51.69554 -3.32117 41246 ft 525 kts 96°
2026-04-25 20:44 51.68860 -3.20538 41260 ft 525 kts 95°
2026-04-25 20:45 51.68148 -3.08771 41294 ft 525 kts 96°
2026-04-25 20:45 51.67420 -2.97058 41300 ft 524 kts 96°
2026-04-25 20:46 51.66686 -2.85329 41301 ft 525 kts 96°
2026-04-25 20:46 51.65937 -2.73639 41220 ft 525 kts 96°
2026-04-25 20:47 51.65181 -2.61962 41217 ft 524 kts 96°
2026-04-25 20:47 51.64407 -2.50233 41216 ft 525 kts 96°
2026-04-25 20:48 51.63630 -2.38615 41204 ft 525 kts 96°
2026-04-25 20:48 51.63379 -2.26907 41229 ft 525 kts 82°
2026-04-25 20:49 51.64670 -2.15411 41212 ft 524 kts 77°
2026-04-25 20:49 51.65804 -2.03785 41203 ft 525 kts 85°
2026-04-25 20:50 51.66344 -1.92154 41223 ft 525 kts 83°
2026-04-25 20:50 51.67284 -1.80511 41222 ft 524 kts 83°
2026-04-25 20:51 51.67976 -1.68797 41213 ft 524 kts 83°
2026-04-25 20:51 51.68789 -1.57164 41207 ft 524 kts 83°
2026-04-25 20:52 51.69401 -1.47424 41209 ft 524 kts 84°
2026-04-25 20:52 51.70273 -1.33789 41212 ft 524 kts 83°
2026-04-25 20:53 51.71004 -1.22050 41210 ft 526 kts 84°
2026-04-25 20:53 51.71725 -1.10340 41213 ft 525 kts 84°
2026-04-25 20:54 51.72379 -0.99562 41211 ft 525 kts 84°
2026-04-25 20:54 51.73073 -0.87885 41210 ft 525 kts 84°
2026-04-25 20:55 51.73761 -0.76172 41222 ft 525 kts 84°
2026-04-25 20:55 51.74436 -0.64419 41227 ft 526 kts 84°
2026-04-25 20:56 51.75102 -0.52671 41234 ft 525 kts 84°
2026-04-25 20:56 51.75751 -0.40975 41296 ft 525 kts 84°
2026-04-25 20:57 51.76389 -0.29284 41300 ft 525 kts 84°
2026-04-25 20:57 51.77020 -0.17495 41292 ft 524 kts 84°
2026-04-25 20:58 51.77637 -0.05762 41278 ft 523 kts 84°
2026-04-25 20:58 51.78240 0.05962 41251 ft 522 kts 84°
2026-04-25 20:59 51.78828 0.17589 41261 ft 523 kts 84°
2026-04-25 20:59 51.79408 0.29314 41260 ft 522 kts 84°
2026-04-25 21:00 51.79789 0.37146 41255 ft 523 kts 85°
2026-04-25 21:01 51.80800 0.58458 41257 ft 522 kts 85°
2026-04-25 21:01 51.81819 0.70112 41236 ft 521 kts 74°
2026-04-25 21:02 51.83658 0.81428 41251 ft 519 kts 73°
2026-04-25 21:02 51.85633 0.92526 41245 ft 518 kts 72°
2026-04-25 21:03 51.87690 1.03755 41252 ft 516 kts 72°
2026-04-25 21:03 51.89699 1.14933 41254 ft 517 kts 72°
2026-04-25 21:04 51.91708 1.26124 41265 ft 516 kts 72°
2026-04-25 21:04 51.93692 1.37245 41271 ft 516 kts 72°
2026-04-25 21:05 51.95678 1.48470 41266 ft 516 kts 72°
2026-04-25 21:05 51.97644 1.59621 41266 ft 516 kts 72°
2026-04-25 21:06 51.99532 1.70748 41276 ft 516 kts 75°
2026-04-25 21:06 52.01299 1.81986 41272 ft 516 kts 74°
2026-04-25 21:07 52.03047 1.93281 41280 ft 516 kts 75°
2026-04-25 21:07 52.04786 2.04619 41279 ft 515 kts 74°
2026-04-25 21:08 52.06510 2.15872 41274 ft 515 kts 75°
2026-04-25 21:08 52.08227 2.27226 41275 ft 516 kts 75°
2026-04-25 21:09 52.10777 2.44181 41278 ft 516 kts 75°
2026-04-25 21:09 52.12734 2.55437 41272 ft 514 kts 71°
2026-04-25 21:10 52.13826 2.66235 41293 ft 518 kts 91°
2026-04-25 21:10 52.13047 2.75993 41276 ft 520 kts 100°
2026-04-25 21:11 52.11683 2.87482 41279 ft 518 kts 97°
2026-04-25 21:11 52.11244 2.99176 41263 ft 518 kts 89°
2026-04-25 21:12 52.11090 3.10891 41272 ft 518 kts 94°
2026-04-25 21:12 52.10578 3.20624 41259 ft 518 kts 92°
2026-04-25 21:13 52.10192 3.34301 41255 ft 518 kts 92°
2026-04-25 21:13 52.09691 3.45920 41254 ft 518 kts 92°
2026-04-25 21:14 52.09285 3.57521 41249 ft 518 kts 92°
2026-04-25 21:14 52.08799 3.69317 41251 ft 519 kts 92°
2026-04-25 21:15 52.08356 3.80578 41259 ft 520 kts 92°
2026-04-25 21:15 52.07873 3.92160 41261 ft 519 kts 93°
2026-04-25 21:16 52.07374 4.03979 41264 ft 518 kts 92°
2026-04-25 21:16 52.06870 4.15634 41241 ft 518 kts 93°
2026-04-25 21:17 52.06355 4.27242 41247 ft 519 kts 93°
2026-04-25 21:17 52.05833 4.38778 41235 ft 520 kts 93°
2026-04-25 21:18 52.05290 4.50495 41232 ft 519 kts 93°
2026-04-25 21:18 52.04739 4.62172 41224 ft 518 kts 93°
2026-04-25 21:19 52.04178 4.73766 41231 ft 518 kts 93°
2026-04-25 21:19 52.03604 4.85421 41228 ft 519 kts 93°
2026-04-25 21:20 52.03112 4.95226 41231 ft 520 kts 93°
2026-04-25 21:20 52.02413 5.08872 41230 ft 519 kts 94°
2026-04-25 21:21 52.01822 5.20178 41221 ft 519 kts 94°
2026-04-25 21:21 52.01204 5.31779 41220 ft 518 kts 94°
2026-04-25 21:22 52.00572 5.43434 41218 ft 519 kts 94°
2026-04-25 21:22 51.99925 5.55139 41217 ft 519 kts 94°
2026-04-25 21:23 51.99270 5.66787 41221 ft 518 kts 94°
2026-04-25 21:23 51.98607 5.78353 41219 ft 519 kts 94°
2026-04-25 21:24 51.97927 5.90028 41220 ft 519 kts 94°
2026-04-25 21:24 51.97252 6.01415 41229 ft 520 kts 94°
2026-04-25 21:25 51.96546 6.13132 41227 ft 520 kts 94°
2026-04-25 21:25 51.95838 6.24690 41221 ft 521 kts 94°
2026-04-25 21:26 51.95113 6.36320 41234 ft 521 kts 94°
2026-04-25 21:26 51.94372 6.48038 41219 ft 523 kts 94°
2026-04-25 21:27 51.93617 6.59785 41224 ft 523 kts 94°
2026-04-25 21:27 51.92877 6.71109 41201 ft 523 kts 94°
2026-04-25 21:28 51.92093 6.82945 41206 ft 521 kts 94°
2026-04-25 21:28 51.91310 6.94581 41214 ft 523 kts 94°
2026-04-25 21:29 51.90509 7.06285 41212 ft 523 kts 94°
2026-04-25 21:29 51.89702 7.17944 41199 ft 523 kts 94°
2026-04-25 21:30 51.88876 7.29674 41198 ft 523 kts 94°
2026-04-25 21:30 51.88181 7.39433 41198 ft 526 kts 94°
2026-04-25 21:31 51.87186 7.53184 41192 ft 526 kts 95°
2026-04-25 21:31 51.86338 7.64730 41194 ft 527 kts 95°
2026-04-25 21:32 51.85467 7.76433 41195 ft 527 kts 95°
2026-04-25 21:32 51.84579 7.88204 41187 ft 529 kts 95°
2026-04-25 21:33 51.83679 7.99970 41187 ft 528 kts 95°
2026-04-25 21:33 51.83217 8.05950 40855 ft 532 kts 95°
2026-04-25 21:33 51.82758 8.11862 40350 ft 530 kts 95°
2026-04-25 21:34 51.82300 8.17699 39810 ft 527 kts 95°
2026-04-25 21:34 51.81831 8.23641 39283 ft 523 kts 95°
2026-04-25 21:34 51.81378 8.29361 38799 ft 520 kts 95°
2026-04-25 21:34 51.80916 8.35149 38185 ft 516 kts 95°
2026-04-25 21:35 51.80456 8.40870 37576 ft 513 kts 95°
2026-04-25 21:35 51.79996 8.46567 36983 ft 510 kts 95°
2026-04-25 21:35 51.79558 8.51956 36451 ft 509 kts 95°
2026-04-25 21:35 51.79093 8.57640 35911 ft 508 kts 95°
2026-04-25 21:36 51.78628 8.63284 35353 ft 506 kts 95°
2026-04-25 21:36 51.78160 8.68951 34850 ft 513 kts 95°
2026-04-25 21:36 51.77691 8.74594 34361 ft 514 kts 95°
2026-04-25 21:36 51.77213 8.80278 33843 ft 518 kts 95°
2026-04-25 21:37 51.76720 8.86127 33260 ft 522 kts 95°
2026-04-25 21:37 51.76394 8.89981 32891 ft 522 kts 95°
2026-04-25 21:37 51.75731 8.97745 32127 ft 519 kts 95°
2026-04-25 21:37 51.75234 9.03529 31589 ft 515 kts 95°
2026-04-25 21:38 51.74742 9.09236 31051 ft 511 kts 95°
2026-04-25 21:38 51.74256 9.14842 30519 ft 509 kts 95°
2026-04-25 21:38 51.73765 9.20455 29947 ft 506 kts 95°
2026-04-25 21:38 51.73270 9.26083 29345 ft 502 kts 95°
2026-04-25 21:39 51.72781 9.31622 28722 ft 497 kts 95°
2026-04-25 21:39 51.72295 9.37098 28109 ft 492 kts 95°
2026-04-25 21:39 51.71810 9.42532 27556 ft 488 kts 95°
2026-04-25 21:39 51.71325 9.47935 27001 ft 484 kts 95°
2026-04-25 21:40 51.70845 9.53244 26487 ft 481 kts 95°
2026-04-25 21:40 51.70362 9.58576 25960 ft 478 kts 95°
2026-04-25 21:40 51.69898 9.63666 25467 ft 474 kts 96°
2026-04-25 21:40 51.69424 9.68833 24980 ft 471 kts 96°
2026-04-25 21:41 51.68937 9.74120 24488 ft 471 kts 95°
2026-04-25 21:41 51.68457 9.79315 24010 ft 469 kts 95°
2026-04-25 21:41 51.67976 9.84492 23479 ft 465 kts 95°
2026-04-25 21:41 51.67494 9.89630 22921 ft 462 kts 95°
2026-04-25 21:42 51.67015 9.94724 22345 ft 458 kts 95°
2026-04-25 21:42 51.66539 9.99772 21805 ft 454 kts 95°
2026-04-25 21:42 51.66062 10.04813 21254 ft 451 kts 95°
2026-04-25 21:42 51.65596 10.09703 20746 ft 447 kts 95°
2026-04-25 21:43 51.65121 10.14660 20219 ft 444 kts 95°
2026-04-25 21:43 51.64646 10.19604 19718 ft 442 kts 95°
2026-04-25 21:43 51.64178 10.24461 19226 ft 444 kts 95°
2026-04-25 21:43 51.63705 10.29335 18738 ft 440 kts 95°
2026-04-25 21:44 51.63228 10.34213 18205 ft 437 kts 95°
2026-04-25 21:44 51.62768 10.38918 17668 ft 433 kts 95°
2026-04-25 21:44 51.61839 10.48357 17140 ft 431 kts 95°
2026-04-25 21:45 51.61363 10.53171 17139 ft 430 kts 95°
2026-04-25 21:45 51.61208 10.54725 17140 ft 430 kts 95°
2026-04-25 21:45 51.60417 10.62637 17139 ft 431 kts 95°
2026-04-25 21:45 51.59944 10.67348 17153 ft 431 kts 95°
2026-04-25 21:46 51.59457 10.72187 17130 ft 432 kts 95°
2026-04-25 21:46 51.58975 10.76935 17131 ft 432 kts 95°
2026-04-25 21:46 51.58484 10.81762 17124 ft 432 kts 95°
2026-04-25 21:46 51.58003 10.86474 17124 ft 432 kts 95°
2026-04-25 21:47 51.57512 10.91271 17121 ft 433 kts 95°
2026-04-25 21:47 51.57021 10.96029 17121 ft 432 kts 96°
2026-04-25 21:47 51.56526 11.00814 17123 ft 432 kts 95°
2026-04-25 21:47 51.56033 11.05565 17117 ft 433 kts 96°
2026-04-25 21:48 51.55533 11.10363 17118 ft 433 kts 96°
2026-04-25 21:48 51.55035 11.15116 16962 ft 435 kts 96°
2026-04-25 21:48 51.54529 11.19935 16695 ft 433 kts 96°
2026-04-25 21:48 51.54032 11.24628 16427 ft 432 kts 96°
2026-04-25 21:49 51.53520 11.29460 16086 ft 430 kts 96°
2026-04-25 21:49 51.53022 11.34147 15767 ft 428 kts 96°
2026-04-25 21:49 51.52522 11.38830 15445 ft 427 kts 96°
2026-04-25 21:49 51.52017 11.43528 15128 ft 424 kts 96°
2026-04-25 21:50 51.51520 11.48174 14803 ft 422 kts 95°
2026-04-25 21:50 51.51399 11.52836 14506 ft 413 kts 81°
2026-04-25 21:50 51.51624 11.57418 14194 ft 411 kts 80°
2026-04-25 21:50 51.51789 11.60433 13995 ft 409 kts 80°
2026-04-25 21:51 51.52113 11.66437 13541 ft 398 kts 80°
2026-04-25 21:51 51.52332 11.70788 13203 ft 391 kts 80°
2026-04-25 21:51 51.52547 11.75111 12844 ft 384 kts 80°
2026-04-25 21:51 51.52762 11.79344 12483 ft 374 kts 80°
2026-04-25 21:52 51.52967 11.83426 12103 ft 358 kts 80°
2026-04-25 21:52 51.53161 11.87331 11724 ft 346 kts 79°
2026-04-25 21:52 51.53350 11.91132 11355 ft 335 kts 79°
2026-04-25 21:52 51.53530 11.94780 11003 ft 325 kts 79°
2026-04-25 21:53 51.53709 11.98406 10646 ft 324 kts 79°
2026-04-25 21:53 51.53885 12.01987 10271 ft 322 kts 79°
2026-04-25 21:53 51.54058 12.05577 9771 ft 320 kts 80°
2026-04-25 21:53 51.54226 12.09104 9234 ft 316 kts 80°
2026-04-25 21:54 51.54392 12.12611 8718 ft 314 kts 79°
2026-04-25 21:54 51.54558 12.16066 8213 ft 312 kts 80°
2026-04-25 21:54 51.54719 12.19519 7724 ft 309 kts 80°
2026-04-25 21:54 51.54880 12.22963 7226 ft 308 kts 80°
2026-04-25 21:55 51.55042 12.26390 6776 ft 314 kts 80°
2026-04-25 21:55 51.55208 12.29947 6289 ft 320 kts 81°
2026-04-25 21:55 51.55367 12.33488 6102 ft 314 kts 81°
2026-04-25 21:55 51.55520 12.36948 6017 ft 306 kts 80°
2026-04-25 21:56 51.55621 12.39183 6010 ft 297 kts 80°
2026-04-25 21:56 51.55775 12.42507 6005 ft 299 kts 80°
2026-04-25 21:56 51.55928 12.45857 6005 ft 300 kts 80°
2026-04-25 21:56 51.56076 12.49207 6002 ft 300 kts 80°
2026-04-25 21:57 51.56221 12.52537 6001 ft 300 kts 80°
2026-04-25 21:57 51.56368 12.55888 6000 ft 299 kts 80°
2026-04-25 21:57 51.56515 12.59219 6000 ft 300 kts 80°
2026-04-25 21:57 51.56660 12.62566 6002 ft 301 kts 80°
2026-04-25 21:58 51.56803 12.65901 5999 ft 301 kts 80°
2026-04-25 21:58 51.56946 12.69255 5997 ft 300 kts 81°
2026-04-25 21:58 51.57082 12.72609 5992 ft 302 kts 84°
2026-04-25 21:58 51.56666 12.75989 6002 ft 311 kts 113°
2026-04-25 21:59 51.55399 12.78790 6003 ft 311 kts 141°
2026-04-25 21:59 51.53573 12.80451 5998 ft 303 kts 169°
2026-04-25 21:59 51.51536 12.80715 6001 ft 288 kts 196°
2026-04-25 22:00 51.48336 12.77707 5998 ft 262 kts 233°
2026-04-25 22:00 51.47122 12.75738 5887 ft 261 kts 234°
2026-04-25 22:00 51.45858 12.73650 5803 ft 260 kts 234°
2026-04-25 22:00 51.44599 12.71562 5721 ft 260 kts 234°
2026-04-25 22:01 51.43512 12.69332 5627 ft 248 kts 255°
2026-04-25 22:01 51.43213 12.66709 5499 ft 236 kts 272°
2026-04-25 22:01 51.43199 12.64108 5201 ft 233 kts 272°
2026-04-25 22:01 51.43124 12.62386 5027 ft 234 kts 271°
2026-04-25 22:02 51.42962 12.58928 4642 ft 226 kts 271°
2026-04-25 22:02 51.42842 12.56592 4346 ft 194 kts 272°
2026-04-25 22:02 51.42741 12.54582 4027 ft 171 kts 274°
2026-04-25 22:02 51.42669 12.52797 3776 ft 151 kts 275°
2026-04-25 22:03 51.42586 12.51092 3606 ft 150 kts 275°
2026-04-25 22:03 51.42507 12.49393 3413 ft 152 kts 275°
2026-04-25 22:03 51.42430 12.47749 3225 ft 154 kts 275°
2026-04-25 22:03 51.42353 12.46078 3020 ft 154 kts 274°
2026-04-25 22:04 51.42272 12.44361 2819 ft 154 kts 274°
2026-04-25 22:04 51.42204 12.42844 2638 ft 153 kts 275°
2026-04-25 22:04 51.42130 12.41162 2434 ft 152 kts 275°
2026-04-25 22:04 51.42059 12.39519 2243 ft 154 kts 273°
2026-04-25 22:05 51.41980 12.37851 2039 ft 146 kts 273°
2026-04-25 22:05 51.41903 12.36308 1833 ft 141 kts 274°
2026-04-25 22:05 51.41833 12.34794 1640 ft 137 kts 272°
2026-04-25 22:05 51.41766 12.33321 1439 ft 131 kts 274°
2026-04-25 22:06 51.41697 12.31836 1256 ft 137 kts 271°
2026-04-25 22:06 51.41628 12.30318 1064 ft 134 kts 263°
2026-04-25 22:06 51.41515 12.28822 994 ft 131 kts 271°
2026-04-25 22:06 51.41462 12.27356 746 ft 136 kts 273°
2026-04-25 22:07 51.41390 12.25843 569 ft 132 kts 272°
2026-04-25 22:07 51.41359 12.24993 478 ft 118 kts 271°
2026-04-25 22:07 51.41313 12.23803 480 ft 46 kts 264°
2026-04-25 22:07 51.41293 12.23318 476 ft 47 kts 266°
2026-04-25 22:08 51.41274 12.22818 470 ft 42 kts 268°
2026-04-25 22:08 51.41252 12.22366 466 ft 44 kts 266°
2026-04-25 22:08 51.41230 12.21872 465 ft 45 kts 266°
2026-04-25 22:08 51.41209 12.21393 461 ft 42 kts 267°
2026-04-25 22:09 51.41185 12.20911 454 ft 44 kts 266°
2026-04-25 22:09 51.41178 12.20612 449 ft 4 kts 296°
2026-04-25 22:09 51.41218 12.20566 450 ft 12 kts 338°
2026-04-25 22:09 51.41275 12.20579 451 ft 9 kts 14°
2026-04-25 22:10 51.41343 12.20612 450 ft 14 kts 17°
2026-04-25 22:10 51.41382 12.20631 449 ft 0 kts 15°
2026-04-25 22:10 51.41436 12.20653 447 ft 14 kts 13°
2026-04-25 22:11 51.41540 12.20694 437 ft 17 kts 14°
2026-04-25 22:11 51.41655 12.20746 430 ft 18 kts 15°
2026-04-25 22:11 51.41783 12.20801 430 ft 20 kts 14°
2026-04-25 22:11 51.41904 12.20850 425 ft 6 kts 17°
2026-04-25 22:12 51.41908 12.20852 425 ft 2 kts 17°
2026-04-25 22:12 51.41924 12.20860 421 ft 0 kts 16°
2026-04-25 22:13 51.41964 12.20886 429 ft 6 kts 32°
2026-04-25 22:13 51.41985 12.20921 425 ft 3 kts 59°
2026-04-25 22:13 51.41985 12.21002 437 ft 12 kts 102°
2026-04-25 22:13 51.41958 12.21158 440 ft 14 kts 104°
2026-04-25 22:14 51.41934 12.21299 431 ft 13 kts 105°
2026-04-25 22:14 51.41911 12.21419 437 ft 10 kts 109°
2026-04-25 22:14 51.41887 12.21555 447 ft 18 kts 105°
2026-04-25 22:14 51.41852 12.21768 431 ft 19 kts 105°
2026-04-25 22:15 51.41822 12.21942 430 ft 17 kts 105°
2026-04-25 22:15 51.41807 12.22045 437 ft 2 kts 80°
2026-04-25 22:15 51.41837 12.22087 431 ft 0 kts 23°
2026-04-25 22:16 51.41881 12.22103 443 ft 1 kts 15°
2026-04-25 22:16 51.41892 12.22107 439 ft 0 kts 14°
2026-04-25 22:16 51.41894 12.22108 439 ft 0 kts 14°